Bel Air, Maryland - USA


Yesterday's Data File


6/16/24
Time         Wind Dir   Wind Spd  Wind Gust     Hum In   Humidity    Temp In       Temp  Raw Barom Wind Chill  Press Alt Cloud Base   Dens Alt Temp Out R  DailyRain   24HrRain   RainRate
                    �        mph        mph          %          %         �F         �F         in         �F         ft         ft         ft      �F/hr         in         in      in/hr
12:00am            91          0          0         46         72       71.2       64.8      29.55       64.8        345       2307        823      -1.67       0.01       0.01      0.000
12:01am            91          0          0         46         73       71.2       64.8      29.55       64.8        345       2212        823      -1.63       0.00       0.01      0.000
12:02am            91          0          0         46         73       71.2       64.9      29.55       64.9        345       2213        830      -1.52       0.00       0.01      0.000
12:03am            91          0          0         46         73       71.2       64.9      29.55       64.9        345       2213        830      -1.49       0.00       0.01      0.000
12:04am            91          0          0         46         73       71.2       64.9      29.55       64.9        345       2213        830      -1.47       0.00       0.01      0.000
12:05am            91          0          0         46         73       71.2       64.9      29.55       64.9        344       2213        829      -1.44       0.00       0.01      0.000
12:06am            91          0          0         46         72       71.2       64.9      29.55       64.9        344       2308        829      -1.42       0.00       0.01      0.000
12:07am            91          0          0         46         74       71.4       64.9      29.55       64.9        344       2119        829      -1.39       0.00       0.01      0.000
12:08am            91          0          0         46         73       71.4       64.9      29.55       64.9        344       2213        829      -1.37       0.00       0.01      0.000
12:09am            91          0          0         46         73       71.4       64.9      29.55       64.9        344       2213        829      -1.35       0.00       0.01      0.000
12:10am            91          0          0         46         73       71.4       64.9      29.55       64.9        344       2213        829      -1.33       0.00       0.01      0.000
12:11am            91          0          0         46         72       71.4       64.9      29.55       64.9        345       2308        830      -1.30       0.00       0.01      0.000
12:12am            91          0          0         46         73       71.4       64.8      29.55       64.8        345       2212        823      -1.38       0.00       0.01      0.000
12:13am            91          0          0         46         72       71.4       64.8      29.55       64.8        345       2307        823      -1.36       0.00       0.01      0.000
12:14am            91          0          0         46         73       71.4       64.8      29.55       64.8        344       2212        822      -1.34       0.00       0.01      0.000
12:15am            91          0          0         46         74       71.4       64.7      29.55       64.7        344       2117        816      -1.41       0.00       0.01      0.000
12:16am            91          0          0         46         74       71.4       64.8      29.55       64.8        344       2118        822      -1.29       0.00       0.00      0.000
12:17am            91          0          0         46         75       71.4       64.7      29.55       64.7        344       2024        816      -1.37       0.00       0.00      0.000
12:18am            91          0          0         46         75       71.4       64.7      29.55       64.7        344       2024        816      -1.35       0.00       0.00      0.000
12:19am            91          0          0         46         75       71.4       64.7      29.55       64.7        344       2024        816      -1.32       0.00       0.00      0.000
12:20am            91          0          0         46         76       71.4       64.6      29.55       64.6        344       1932        809      -1.40       0.00       0.00      0.000
12:21am            91          0          0         46         76       71.4       64.6      29.55       64.6        344       1932        809      -1.38       0.00       0.00      0.000
12:22am            91          0          0         46         75       71.2       64.5      29.55       64.5        344       2022        803      -1.45       0.00       0.00      0.000
12:23am            91          0          0         46         75       71.2       64.5      29.55       64.5        344       2022        803      -1.43       0.00       0.00      0.000
12:24am            91          0          0         46         75       71.2       64.4      29.55       64.4        344       2022        796      -1.51       0.00       0.00      0.000
12:25am            91          0          0         46         74       71.2       64.4      29.55       64.4        344       2114        796      -1.48       0.00       0.00      0.000
12:26am            91          0          0         46         74       71.2       64.4      29.55       64.4        344       2114        796      -1.46       0.00       0.00      0.000
12:27am            91          0          0         46         74       71.2       64.3      29.55       64.3        344       2113        790      -1.53       0.00       0.00      0.000
12:28am            91          0          0         46         73       71.2       64.3      29.55       64.3        344       2207        790      -1.50       0.00       0.00      0.000
12:29am            91          0          0         46         73       71.2       64.3      29.55       64.3        344       2207        790      -1.48       0.00       0.00      0.000
12:30am            91          0          0         46         73       71.2       64.3      29.55       64.3        343       2207        789      -1.45       0.00       0.00      0.000
12:31am            91          0          0         46         74       71.2       64.3      29.55       64.3        343       2113        789      -1.43       0.00       0.00      0.000
12:32am            91          0          0         46         74       71.2       64.3      29.55       64.3        342       2113        788      -1.41       0.00       0.00      0.000
12:33am            91          0          0         46         75       71.2       64.3      29.55       64.3        342       2021        788      -1.38       0.00       0.00      0.000
12:34am            91          0          0         46         76       71.2       64.3      29.55       64.3        343       1929        789      -1.36       0.00       0.00      0.000
12:35am            91          0          0         46         76       71.2       64.3      29.55       64.3        343       1929        789      -1.34       0.00       0.00      0.000
12:36am            91          0          0         46         76       71.2       64.2      29.55       64.2        342       1928        781      -1.42       0.00       0.00      0.000
12:37am            91          0          0         46         77       71.2       64.2      29.55       64.2        342       1838        781      -1.39       0.00       0.00      0.000
12:38am            91          0          0         46         78       71.2       64.2      29.55       64.2        342       1749        781      -1.37       0.00       0.00      0.000
12:39am            91          0          0         46         78       71.2       64.2      29.55       64.2        341       1749        780      -1.35       0.00       0.00      0.000
12:40am            91          0          0         46         79       71.2       64.2      29.55       64.2        340       1660        779      -1.33       0.00       0.00      0.000
12:41am            91          0          0         46         79       71.2       64.1      29.55       64.1        340       1659        772      -1.40       0.00       0.00      0.000
12:42am            91          0          0         46         79       71.2       64.1      29.55       64.1        340       1659        772      -1.38       0.00       0.00      0.000
12:43am            91          0          0         46         80       71.2       64.0      29.55       64.0        340       1571        766      -1.46       0.00       0.00      0.000
12:44am            91          0          0         46         80       71.2       64.0      29.55       64.0        341       1571        767      -1.43       0.00       0.00      0.000
12:45am            91          0          0         46         80       71.2       64.0      29.55       64.0        342       1571        768      -1.41       0.00       0.00      0.000
12:46am            91          0          0         46         80       71.2       63.9      29.55       63.9        342       1571        762      -1.48       0.00       0.00      0.000
12:47am            91          0          0         46         80       71.2       63.9      29.55       63.9        342       1571        762      -1.46       0.00       0.00      0.000
12:48am            91          0          0         46         80       71.2       63.8      29.55       63.8        342       1570        755      -1.53       0.00       0.00      0.000
12:49am            91          0          0         46         79       71.2       63.7      29.55       63.7        342       1657        749      -1.61       0.00       0.00      0.000
12:50am            91          0          0         46         79       71.2       63.6      29.55       63.6        342       1656        742      -1.68       0.00       0.00      0.000
12:51am            91          0          0         46         80       71.4       63.6      29.55       63.6        341       1569        741      -1.65       0.00       0.00      0.000
12:52am            91          0          0         46         80       71.4       63.6      29.55       63.6        341       1569        741      -1.63       0.00       0.00      0.000
12:53am            91          0          0         46         80       71.4       63.5      29.55       63.5        341       1568        735      -1.70       0.00       0.00      0.000
12:54am            91          0          0         46         80       71.4       63.5      29.55       63.5        341       1568        735      -1.67       0.00       0.00      0.000
12:55am            91          0          0         46         80       71.4       63.5      29.55       63.5        340       1568        733      -1.64       0.00       0.00      0.000
12:56am            91          0          0         46         80       71.4       63.4      29.55       63.4        341       1567        728      -1.72       0.00       0.00      0.000
12:57am            91          0          0         46         80       71.4       63.4      29.55       63.4        342       1567        729      -1.69       0.00       0.00      0.000
12:58am            91          0          0         46         80       71.4       63.3      29.55       63.3        343       1567        724      -1.76       0.00       0.00      0.000
12:59am            91          0          0         46         80       71.4       63.2      29.55       63.2        343       1566        717      -1.83       0.00       0.00      0.000
1:00am             91          0          0         46         79       71.4       63.1      29.55       63.1        343       1652        711      -1.90       0.00       0.00      0.000
1:01am             91          0          0         46         79       71.4       63.1      29.55       63.1        343       1652        711      -1.87       0.00       0.00      0.000
1:02am             91          0          0         46         80       71.4       63.0      29.55       63.0        343       1565        704      -1.93       0.00       0.00      0.000
1:03am             91          0          0         46         80       71.4       62.9      29.55       62.9        343       1564        698      -2.00       0.00       0.00      0.000
1:04am             91          0          0         46         79       71.4       62.9      29.55       62.9        343       1651        698      -1.96       0.00       0.00      0.000
1:05am             91          0          0         46         80       71.4       62.7      29.55       62.7        343       1563        685      -2.13       0.00       0.00      0.000
1:06am             91          0          0         46         80       71.4       62.7      29.55       62.7        343       1563        685      -2.10       0.00       0.00      0.000
1:07am             91          0          0         46         80       71.4       62.7      29.55       62.7        343       1563        685      -2.06       0.00       0.00      0.000
1:08am             91          0          0         46         80       71.6       62.6      29.55       62.6        343       1562        678      -2.13       0.00       0.00      0.000
1:09am             91          0          0         46         80       71.6       62.5      29.55       62.5        343       1561        672      -2.19       0.00       0.00      0.000
1:10am             91          0          0         46         80       71.6       62.5      29.55       62.5        343       1561        672      -2.16       0.00       0.00      0.000
1:11am             91          0          0         46         81       71.6       62.5      29.55       62.5        343       1475        672      -2.12       0.00       0.00      0.000
1:12am             91          0          0         46         81       71.6       62.4      29.55       62.4        343       1475        665      -2.18       0.00       0.00      0.000
1:13am             91          0          0         46         82       71.6       62.4      29.55       62.4        343       1390        665      -2.15       0.00       0.00      0.000
1:14am             91          0          0         46         82       71.6       62.4      29.55       62.4        343       1390        665      -2.11       0.00       0.00      0.000
1:15am             91          0          0         46         82       71.6       62.3      29.55       62.3        343       1389        659      -2.17       0.00       0.00      0.000
1:16am             91          0          0         46         82       71.6       62.3      29.55       62.3        343       1389        659      -2.14       0.00       0.00      0.000
1:17am             91          0          0         46         82       71.6       62.3      29.55       62.3        343       1389        659      -2.10       0.00       0.00      0.000
1:18am             91          0          0         46         82       71.6       62.2      29.55       62.2        343       1389        652      -2.17       0.00       0.00      0.000
1:19am             91          0          0         46         82       71.6       62.2      29.55       62.2        342       1389        651      -2.13       0.00       0.00      0.000
1:20am             91          0          0         46         82       71.6       62.1      29.55       62.1        342       1388        645      -2.20       0.00       0.00      0.000
1:21am             91          0          0         46         82       71.6       62.1      29.55       62.1        342       1388        645      -2.16       0.00       0.00      0.000
1:22am             91          0          0         46         82       71.8       62.1      29.55       62.1        342       1388        645      -2.12       0.00       0.00      0.000
1:23am             91          0          0         46         82       71.8       62.0      29.55       62.0        341       1388        637      -2.19       0.00       0.00      0.000
1:24am             91          0          0         48         82       71.8       62.0      29.55       62.0        341       1388        637      -2.15       0.00       0.00      0.000
1:25am             91          0          0         46         81       71.8       62.0      29.55       62.0        341       1472        637      -2.12       0.00       0.00      0.000
1:26am             91          0          0         46         82       71.8       61.9      29.55       61.9        342       1387        631      -2.18       0.00       0.00      0.000
1:27am             91          0          0         46         82       71.8       61.9      29.55       61.9        341       1387        630      -2.15       0.00       0.00      0.000
1:28am             91          0          0         46         82       71.8       61.9      29.55       61.9        341       1387        630      -2.11       0.00       0.00      0.000
1:29am             91          0          0         46         82       71.8       61.9      29.55       61.9        340       1387        629      -2.08       0.00       0.00      0.000
1:30am             91          0          0         46         82       71.8       61.8      29.55       61.8        339       1386        622      -2.14       0.00       0.00      0.000
1:31am             91          0          0         46         81       71.8       61.9      29.55       61.9        339       1472        628      -2.01       0.00       0.00      0.000
1:32am             91          0          0         46         80       71.8       61.8      29.56       61.8        339       1557        620      -2.07       0.00       0.00      0.000
1:33am             91          0          0         46         81       71.8       61.9      29.56       61.9        338       1472        626      -1.94       0.00       0.00      0.000
1:34am             91          0          0         46         80       71.8       61.9      29.56       61.9        338       1557        626      -1.91       0.00       0.00      0.000
1:35am             91          0          0         46         79       71.8       61.9      29.56       61.9        338       1644        626      -1.88       0.00       0.00      0.000
1:36am             91          0          0         46         80       71.8       61.9      29.56       61.9        335       1557        622      -1.85       0.00       0.00      0.000
1:37am             91          0          0         46         80       71.8       61.9      29.56       61.9        334       1557        621      -1.81       0.00       0.00      0.000
1:38am             91          0          0         46         80       71.8       61.9      29.56       61.9        333       1557        620      -1.79       0.00       0.00      0.000
1:39am             91          0          0         46         80       71.8       62.0      29.56       62.0        332       1558        626      -1.66       0.00       0.00      0.000
1:40am             91          3          3         46         80       71.8       62.0      29.56       62.0        331       1558        624      -1.63       0.00       0.00      0.000
1:41am             91          2          4         46         79       71.8       62.0      29.56       62.0        331       1645        624      -1.60       0.00       0.00      0.000
1:42am             91          0          4         46         79       71.8       62.2      29.56       62.2        331       1646        637      -1.38       0.00       0.00      0.000
1:43am             91          0          4         46         80       71.9       62.3      29.56       62.3        331       1560        644      -1.26       0.00       0.00      0.000
1:44am             91          0          4         46         80       71.9       62.4      29.56       62.4        332       1561        652      -1.14       0.00       0.00      0.000
1:45am             91          0          4         46         79       71.9       62.4      29.56       62.4        333       1647        653      -1.12       0.00       0.00      0.000
1:46am             91          1          1         46         78       71.9       62.5      29.56       62.5        333       1736        659      -1.00       0.00       0.00      0.000
1:47am             91          0          1         46         78       71.9       62.5      29.56       62.5        333       1736        659      -0.98       0.00       0.00      0.000
1:48am             91          0          1         46         78       71.9       62.5      29.56       62.5        332       1736        658      -0.97       0.00       0.00      0.000
1:49am             91          0          1         46         77       71.9       62.6      29.56       62.6        332       1826        665      -0.85       0.00       0.00      0.000
1:50am             91          0          1         46         77       71.9       62.6      29.56       62.6        331       1826        664      -0.84       0.00       0.00      0.000
1:51am             91          0          0         46         76       71.9       62.6      29.56       62.6        331       1915        664      -0.82       0.00       0.00      0.000
1:52am             91          1          1         46         76       71.9       62.6      29.56       62.6        330       1915        662      -0.81       0.00       0.00      0.000
1:53am             91          0          1         46         77       71.9       62.6      29.56       62.6        330       1826        662      -0.79       0.00       0.00      0.000
1:54am             91          0          1         46         77       71.9       62.7      29.56       62.7        330       1826        669      -0.68       0.00       0.00      0.000
1:55am             91          0          1         46         77       71.9       62.6      29.56       62.6        330       1826        662      -0.77       0.00       0.00      0.000
1:56am             91          0          0         46         77       71.9       62.7      29.56       62.7        330       1826        669      -0.66       0.00       0.00      0.000
1:57am             91          0          0         46         77       71.9       62.7      29.56       62.7        330       1826        669      -0.65       0.00       0.00      0.000
1:58am             91          0          0         46         77       71.9       62.6      29.56       62.6        331       1826        664      -0.73       0.00       0.00      0.000
1:59am             91          0          0         46         77       71.9       62.6      29.56       62.6        331       1826        664      -0.72       0.00       0.00      0.000
2:00am             91          0          0         46         77       71.9       62.6      29.56       62.6        331       1826        664      -0.71       0.00       0.00      0.000
2:01am             91          0          0         46         77       72.1       62.5      29.56       62.5        330       1825        656      -0.80       0.00       0.00      0.000
2:02am             91          0          0         46         77       72.1       62.5      29.56       62.5        330       1825        656      -0.78       0.00       0.00      0.000
2:03am             91          0          0         46         77       72.1       62.5      29.56       62.5        330       1825        656      -0.77       0.00       0.00      0.000
2:04am             91          0          0         46         76       72.1       62.5      29.56       62.5        330       1915        656      -0.76       0.00       0.00      0.000
2:05am             91          0          0         46         77       72.1       62.5      29.56       62.5        330       1825        656      -0.75       0.00       0.00      0.000
2:06am             91          0          0         46         77       72.1       62.5      29.57       62.5        329       1825        655      -0.73       0.00       0.00      0.000
2:07am             91          0          0         46         77       72.1       62.5      29.56       62.5        330       1825        656      -0.72       0.00       0.00      0.000
2:08am             91          0          0         46         77       72.1       62.5      29.56       62.5        330       1825        656      -0.71       0.00       0.00      0.000
2:09am             91          0          0         46         77       72.1       62.5      29.56       62.5        330       1825        656      -0.70       0.00       0.00      0.000
2:10am             91          0          0         46         77       72.1       62.4      29.56       62.4        330       1824        649      -0.78       0.00       0.00      0.000
2:11am             91          0          0         46         77       72.1       62.4      29.57       62.4        329       1824        648      -0.77       0.00       0.00      0.000
2:12am             91          0          0         46         77       72.1       62.4      29.57       62.4        329       1824        648      -0.76       0.00       0.00      0.000
2:13am             91          0          0         46         76       72.1       62.4      29.57       62.4        329       1914        648      -0.75       0.00       0.00      0.000
2:14am             91          0          0         46         77       72.1       62.3      29.57       62.3        329       1823        642      -0.83       0.00       0.00      0.000
2:15am             91          0          0         46         76       72.1       62.3      29.57       62.3        329       1913        642      -0.82       0.00       0.00      0.000
2:16am             91          0          0         47         77       72.1       62.4      29.57       62.4        329       1824        648      -0.71       0.00       0.00      0.000
2:17am             91          0          0         46         77       72.1       62.3      29.57       62.3        329       1823        642      -0.79       0.00       0.00      0.000
2:18am             91          0          0         46         77       72.1       62.3      29.57       62.3        329       1823        642      -0.78       0.00       0.00      0.000
2:19am             91          0          0         47         77       72.1       62.3      29.57       62.3        328       1823        641      -0.77       0.00       0.00      0.000
2:20am             91          0          0         46         77       72.3       62.3      29.57       62.3        328       1823        641      -0.76       0.00       0.00      0.000
2:21am             91          0          0         47         77       72.3       62.3      29.57       62.3        328       1823        641      -0.74       0.00       0.00      0.000
2:22am             91          0          0         46         77       72.3       62.2      29.57       62.2        328       1822        634      -0.83       0.00       0.00      0.000
2:23am             91          0          0         47         77       72.3       62.2      29.57       62.2        328       1822        634      -0.82       0.00       0.00      0.000
2:24am             91          0          0         46         77       72.3       62.2      29.57       62.2        328       1822        634      -0.81       0.00       0.00      0.000
2:25am             91          0          0         46         76       72.3       62.2      29.57       62.2        328       1912        634      -0.79       0.00       0.00      0.000
2:26am             91          0          0         46         76       72.3       62.2      29.57       62.2        327       1912        633      -0.78       0.00       0.00      0.000
2:27am             91          0          0         46         77       72.3       62.2      29.57       62.2        327       1822        633      -0.77       0.00       0.00      0.000
2:28am             91          0          0         46         77       72.3       62.2      29.57       62.2        327       1822        633      -0.75       0.00       0.00      0.000
2:29am             91          0          0         47         78       72.3       62.2      29.57       62.2        327       1734        633      -0.74       0.00       0.00      0.000
2:30am             91          0          0         47         78       72.3       62.2      29.57       62.2        328       1734        634      -0.73       0.00       0.00      0.000
2:31am             91          0          0         47         78       72.3       62.2      29.57       62.2        328       1734        634      -0.72       0.00       0.00      0.000
2:32am             91          0          0         47         78       72.3       62.2      29.57       62.2        328       1734        634      -0.71       0.00       0.00      0.000
2:33am             91          0          0         47         79       72.3       62.2      29.57       62.2        328       1646        634      -0.69       0.00       0.00      0.000
2:34am             91          0          0         47         78       72.3       62.2      29.57       62.2        327       1734        633      -0.68       0.00       0.00      0.000
2:35am             91          0          0         47         79       72.3       62.2      29.57       62.2        327       1646        632      -0.67       0.00       0.00      0.000
2:36am             91          0          0         46         79       72.3       62.2      29.57       62.2        327       1646        632      -0.66       0.00       0.00      0.000
2:37am             91          0          0         47         79       72.3       62.2      29.57       62.2        326       1646        631      -0.65       0.00       0.00      0.000
2:38am             91          0          0         47         79       72.3       62.2      29.57       62.2        327       1646        632      -0.64       0.00       0.00      0.000
2:39am             91          0          0         47         78       72.3       62.2      29.57       62.2        326       1734        631      -0.63       0.00       0.00      0.000
2:40am             91          0          0         47         78       72.4       62.2      29.57       62.2        326       1734        631      -0.62       0.00       0.00      0.000
2:41am             91          0          0         47         78       72.4       62.2      29.57       62.2        326       1734        631      -0.61       0.00       0.00      0.000
2:42am             91          0          0         47         78       72.4       62.2      29.57       62.2        326       1734        631      -0.60       0.00       0.00      0.000
2:43am             91          0          0         47         78       72.4       62.1      29.57       62.1        327       1733        625      -0.68       0.00       0.00      0.000
2:44am             91          0          0         47         78       72.4       62.1      29.57       62.1        327       1733        625      -0.67       0.00       0.00      0.000
2:45am             91          0          0         47         78       72.4       62.1      29.57       62.1        327       1733        625      -0.66       0.00       0.00      0.000
2:46am             91          0          0         47         78       72.4       62.0      29.57       62.0        327       1732        619      -0.75       0.00       0.00      0.000
2:47am             91          0          0         47         78       72.4       62.0      29.57       62.0        327       1732        619      -0.74       0.00       0.00      0.000
2:48am             91          0          0         47         78       72.4       62.0      29.57       62.0        327       1732        619      -0.73       0.00       0.00      0.000
2:49am             91          0          0         47         78       72.4       62.0      29.57       62.0        327       1732        619      -0.71       0.00       0.00      0.000
2:50am             91          0          0         47         78       72.4       61.9      29.57       61.9        327       1732        613      -0.80       0.00       0.00      0.000
2:51am             91          0          0         47         78       72.4       61.9      29.57       61.9        327       1732        612      -0.79       0.00       0.00      0.000
2:52am             91          0          0         47         78       72.4       61.9      29.57       61.9        327       1732        613      -0.77       0.00       0.00      0.000
2:53am             91          0          0         47         79       72.4       61.8      29.57       61.8        327       1643        607      -0.86       0.00       0.00      0.000
2:54am             91          0          0         47         79       72.4       61.8      29.57       61.8        327       1643        607      -0.85       0.00       0.00      0.000
2:55am             91          0          0         47         79       72.4       61.8      29.57       61.8        327       1643        607      -0.83       0.00       0.00      0.000
2:56am             91          0          0         47         79       72.6       61.7      29.57       61.7        327       1643        599      -0.92       0.00       0.00      0.000
2:57am             91          0          0         47         79       72.6       61.7      29.57       61.7        327       1643        600      -0.90       0.00       0.00      0.000
2:58am             91          0          0         47         79       72.6       61.7      29.57       61.7        327       1643        599      -0.89       0.00       0.00      0.000
2:59am             91          0          0         47         80       72.6       61.7      29.57       61.7        327       1556        600      -0.87       0.00       0.00      0.000
3:00am             91          0          0         47         80       72.6       61.6      29.57       61.6        327       1555        594      -0.96       0.00       0.00      0.000
3:01am             91          0          0         47         80       72.6       61.6      29.57       61.6        327       1555        594      -0.94       0.00       0.00      0.000
3:02am             91          0          0         47         80       72.6       61.6      29.57       61.6        327       1555        593      -0.93       0.00       0.00      0.000
3:03am             91          0          0         47         80       72.6       61.5      29.57       61.5        327       1555        586      -1.01       0.00       0.00      0.000
3:04am             91          0          0         47         80       72.6       61.5      29.57       61.5        327       1555        586      -0.99       0.00       0.00      0.000
3:05am             91          0          0         47         80       72.6       61.5      29.57       61.5        326       1555        585      -0.98       0.00       0.00      0.000
3:06am             91          0          0         47         80       72.6       61.5      29.57       61.5        325       1555        584      -0.96       0.00       0.00      0.000
3:07am             91          0          0         47         80       72.6       61.4      29.57       61.4        326       1554        579      -1.04       0.00       0.00      0.000
3:08am             91          0          0         47         81       72.6       61.4      29.57       61.4        326       1469        579      -1.03       0.00       0.00      0.000
3:09am             91          0          0         47         81       72.6       61.4      29.57       61.4        325       1469        577      -1.01       0.00       0.00      0.000
3:10am             91          0          0         47         81       72.6       61.4      29.57       61.4        325       1469        577      -0.99       0.00       0.00      0.000
3:11am             91          0          0         47         81       72.6       61.3      29.57       61.3        324       1468        570      -1.07       0.00       0.00      0.000
3:12am             91          0          0         47         81       72.6       61.3      29.57       61.3        323       1468        569      -1.06       0.00       0.00      0.000
3:13am             91          0          0         47         81       72.6       61.2      29.57       61.2        324       1467        563      -1.14       0.00       0.00      0.000
3:14am             91          0          0         47         81       72.6       61.2      29.57       61.2        324       1467        563      -1.12       0.00       0.00      0.000
3:15am             91          0          0         47         81       72.6       61.1      29.57       61.1        323       1467        556      -1.20       0.00       0.00      0.000
3:16am             91          0          0         47         82       72.8       61.1      29.57       61.1        324       1382        557      -1.18       0.00       0.00      0.000
3:17am             91          0          0         47         82       72.8       61.1      29.57       61.1        323       1382        556      -1.16       0.00       0.00      0.000
3:18am             91          0          0         47         82       72.8       61.1      29.57       61.1        324       1382        557      -1.14       0.00       0.00      0.000
3:19am             91          0          0         47         82       72.8       61.1      29.57       61.1        323       1382        556      -1.12       0.00       0.00      0.000
3:20am             91          1          1         47         82       72.8       61.0      29.57       61.0        324       1382        550      -1.20       0.00       0.00      0.000
3:21am             91          1          2         47         82       72.8       61.0      29.57       61.0        324       1382        550      -1.18       0.00       0.00      0.000
3:22am             91          1          2         47         82       72.8       61.0      29.57       61.0        324       1382        550      -1.16       0.00       0.00      0.000
3:23am             91          2          2         47         82       72.8       61.0      29.57       61.0        323       1382        549      -1.15       0.00       0.00      0.000
3:24am             91          1          2         47         82       72.8       61.0      29.57       61.0        323       1382        549      -1.13       0.00       0.00      0.000
3:25am             91          2          2         47         82       72.8       61.0      29.58       61.0        320       1382        546      -1.11       0.00       0.00      0.000
3:26am             91          1          2         47         82       72.8       60.9      29.58       60.9        319       1381        538      -1.19       0.00       0.00      0.000
3:27am             91          2          2         47         82       72.8       61.0      29.58       61.0        317       1382        542      -1.07       0.00       0.00      0.000
3:28am             91          1          2         47         82       72.8       60.9      29.58       60.9        318       1381        537      -1.15       0.00       0.00      0.000
3:29am             91          1          2         48         82       72.8       61.0      29.58       61.0        318       1382        543      -1.03       0.00       0.00      0.000
3:30am             91          2          3         47         82       72.8       60.9      29.58       60.9        316       1381        535      -1.11       0.00       0.00      0.000
3:31am             91          3          3         47         82       72.8       60.9      29.58       60.9        316       1381        533      -1.10       0.00       0.00      0.000
3:32am             91          1          4         47         82       72.8       60.9      29.58       60.9        316       1381        533      -1.08       0.00       0.00      0.000
3:33am             91          2          4         47         82       72.8       60.9      29.58       60.9        316       1381        533      -1.06       0.00       0.00      0.000
3:34am             91          0          4         47         82       72.8       60.8      29.58       60.8        316       1380        527      -1.14       0.00       0.00      0.000
3:35am             91          2          4         47         82       72.8       60.7      29.58       60.7        316       1380        520      -1.22       0.00       0.00      0.000
3:36am             91          1          3         47         83       72.8       60.7      29.58       60.7        316       1296        520      -1.20       0.00       0.00      0.000
3:37am             91          1          3         47         83       73.0       60.7      29.58       60.7        316       1296        520      -1.18       0.00       0.00      0.000
3:38am             91          1          3         47         83       73.0       60.7      29.58       60.7        316       1296        520      -1.16       0.00       0.00      0.000
3:39am             91          0          3         47         83       73.0       60.7      29.58       60.7        316       1296        520      -1.14       0.00       0.00      0.000
3:40am             91          0          3         47         83       73.0       60.6      29.58       60.6        315       1296        513      -1.22       0.00       0.00      0.000
3:41am             91          1          2         47         83       73.0       60.6      29.58       60.6        315       1296        513      -1.20       0.00       0.00      0.000
3:42am             91          0          2         47         84       73.0       60.6      29.58       60.6        315       1213        513      -1.18       0.00       0.00      0.000
3:43am             91          1          2         47         84       73.0       60.6      29.58       60.6        316       1213        514      -1.16       0.00       0.00      0.000
3:44am             91          1          2         47         84       73.0       60.5      29.58       60.5        316       1213        507      -1.24       0.00       0.00      0.000
3:45am             91          1          2         47         84       73.0       60.5      29.58       60.5        316       1213        507      -1.22       0.00       0.00      0.000
3:46am             91          1          2         47         84       73.0       60.5      29.58       60.5        315       1213        506      -1.20       0.00       0.00      0.000
3:47am             91          3          3         47         84       73.0       60.4      29.58       60.4        315       1212        500      -1.28       0.00       0.00      0.000
3:48am             91          0          3         47         84       73.0       60.4      29.58       60.4        315       1212        500      -1.26       0.00       0.00      0.000
3:49am             91          0          3         47         84       73.0       60.4      29.58       60.4        315       1212        500      -1.24       0.00       0.00      0.000
3:50am             91          0          3         47         84       73.0       60.4      29.58       60.4        315       1212        500      -1.22       0.00       0.00      0.000
3:51am             91          1          1         47         84       73.0       60.3      29.58       60.3        315       1212        493      -1.30       0.00       0.00      0.000
3:52am             91          0          1         47         84       73.0       60.3      29.58       60.3        315       1212        493      -1.28       0.00       0.00      0.000
3:53am             91          0          1         47         84       73.0       60.3      29.58       60.3        315       1212        493      -1.26       0.00       0.00      0.000
3:54am             91          0          1         47         84       73.0       60.3      29.58       60.3        315       1212        493      -1.23       0.00       0.00      0.000
3:55am             91          0          1         47         84       73.0       60.2      29.58       60.2        315       1211        486      -1.31       0.00       0.00      0.000
3:56am             91          0          0         47         84       73.1       60.2      29.58       60.2        315       1211        486      -1.29       0.00       0.00      0.000
3:57am             91          0          0         47         84       73.1       60.1      29.58       60.1        315       1211        480      -1.37       0.00       0.00      0.000
3:58am             91          0          0         47         84       73.1       60.1      29.58       60.1        315       1211        480      -1.35       0.00       0.00      0.000
3:59am             91          0          0         47         84       73.1       60.1      29.58       60.1        315       1211        480      -1.32       0.00       0.00      0.000
4:00am             91          0          0         47         84       73.1       60.1      29.58       60.1        315       1211        480      -1.30       0.00       0.00      0.000
4:01am             91          0          0         47         84       73.1       60.1      29.58       60.1        316       1211        481      -1.28       0.00       0.00      0.000
4:02am             91          0          0         47         84       73.1       60.0      29.58       60.0        316       1210        475      -1.36       0.00       0.00      0.000
4:03am             91          0          0         47         84       73.1       60.0      29.58       60.0        315       1210        473      -1.34       0.00       0.00      0.000
4:04am             91          0          0         47         84       73.1       60.0      29.58       60.0        316       1210        475      -1.31       0.00       0.00      0.000
4:05am             91          0          0         47         84       73.1       59.9      29.58       59.9        316       1210        468      -1.39       0.00       0.00      0.000
4:06am             91          0          0         47         84       73.1       60.0      29.58       60.0        315       1210        473      -1.27       0.00       0.00      0.000
4:07am             91          0          0         47         84       73.1       60.0      29.58       60.0        315       1210        473      -1.25       0.00       0.00      0.000
4:08am             91          0          0         47         84       73.1       60.0      29.58       60.0        315       1210        473      -1.23       0.00       0.00      0.000
4:09am             91          0          0         47         83       73.1       60.0      29.58       60.0        314       1293        472      -1.21       0.00       0.00      0.000
4:10am             91          0          0         47         83       73.1       60.0      29.58       60.0        314       1293        472      -1.19       0.00       0.00      0.000
4:11am             91          0          0         47         83       73.1       60.0      29.58       60.0        314       1293        472      -1.17       0.00       0.00      0.000
4:12am             91          0          0         47         83       73.1       60.0      29.58       60.0        314       1293        472      -1.15       0.00       0.00      0.000
4:13am             91          0          0         47         83       73.1       60.1      29.58       60.1        314       1293        479      -1.03       0.00       0.00      0.000
4:14am             91          0          0         47         83       73.1       60.0      29.58       60.0        315       1293        473      -1.11       0.00       0.00      0.000
4:15am             91          0          0         47         83       73.1       60.1      29.58       60.1        315       1293        480      -0.99       0.00       0.00      0.000
4:16am             91          0          0         47         83       73.1       60.0      29.58       60.0        315       1293        473      -1.08       0.00       0.00      0.000
4:17am             91          0          0         47         83       73.1       60.0      29.58       60.0        315       1293        473      -1.06       0.00       0.00      0.000
4:18am             91          0          0         47         83       73.1       60.0      29.58       60.0        314       1293        472      -1.04       0.00       0.00      0.000
4:19am             91          0          0         47         83       73.1       60.1      29.58       60.1        314       1293        479      -0.93       0.00       0.00      0.000
4:20am             91          0          0         47         83       73.3       60.0      29.58       60.0        314       1293        472      -1.01       0.00       0.00      0.000
4:21am             91          0          0         47         83       73.3       60.0      29.58       60.0        314       1293        472      -0.99       0.00       0.00      0.000
4:22am             91          0          0         47         83       73.3       60.0      29.58       60.0        312       1293        470      -0.97       0.00       0.00      0.000
4:23am             91          0          0         47         83       73.3       60.0      29.59       60.0        311       1293        469      -0.96       0.00       0.00      0.000
4:24am             91          0          0         47         84       73.3       60.0      29.59       60.0        310       1210        468      -0.94       0.00       0.00      0.000
4:25am             91          0          0         47         84       73.3       59.9      29.59       59.9        309       1210        460      -1.03       0.00       0.00      0.000
4:26am             91          0          0         47         84       73.3       60.0      29.59       60.0        310       1210        468      -0.91       0.00       0.00      0.000
4:27am             91          0          0         47         84       73.3       59.9      29.59       59.9        308       1210        459      -0.99       0.00       0.00      0.000
4:28am             91          0          0         47         84       73.3       59.9      29.59       59.9        308       1210        459      -0.98       0.00       0.00      0.000
4:29am             91          0          0         47         84       73.3       60.0      29.59       60.0        308       1210        465      -0.86       0.00       0.00      0.000
4:30am             91          0          0         47         83       73.3       60.0      29.59       60.0        307       1293        464      -0.85       0.00       0.00      0.000
4:31am             91          0          0         47         83       73.3       60.0      29.59       60.0        306       1293        463      -0.83       0.00       0.00      0.000
4:32am             91          0          0         47         83       73.3       60.0      29.59       60.0        307       1293        464      -0.82       0.00       0.00      0.000
4:33am             91          0          0         47         84       73.3       60.0      29.59       60.0        306       1210        463      -0.81       0.00       0.00      0.000
4:34am             91          0          0         47         84       73.3       60.0      29.59       60.0        306       1210        463      -0.79       0.00       0.00      0.000
4:35am             91          0          0         47         84       73.3       60.0      29.59       60.0        305       1210        462      -0.78       0.00       0.00      0.000
4:36am             91          0          0         47         84       73.3       60.0      29.59       60.0        305       1210        462      -0.77       0.00       0.00      0.000
4:37am             91          0          0         47         84       73.3       60.0      29.59       60.0        305       1210        462      -0.75       0.00       0.00      0.000
4:38am             91          0          0         47         83       73.3       60.0      29.59       60.0        305       1293        462      -0.74       0.00       0.00      0.000
4:39am             91          0          0         47         83       73.3       60.0      29.59       60.0        305       1293        462      -0.73       0.00       0.00      0.000
4:40am             91          0          0         47         83       73.3       60.0      29.59       60.0        305       1293        461      -0.72       0.00       0.00      0.000
4:41am             91          0          0         47         83       73.3       60.0      29.59       60.0        305       1293        461      -0.70       0.00       0.00      0.000
4:42am             91          0          0         47         84       73.3       60.0      29.59       60.0        305       1210        461      -0.69       0.00       0.00      0.000
4:43am             91          0          0         47         84       73.3       60.0      29.59       60.0        305       1210        461      -0.68       0.00       0.00      0.000
4:44am             91          0          0         47         84       73.3       60.0      29.59       60.0        305       1210        461      -0.67       0.00       0.00      0.000
4:45am             91          0          0         47         84       73.5       60.0      29.59       60.0        305       1210        461      -0.66       0.00       0.00      0.000
4:46am             91          0          0         47         83       73.5       60.0      29.59       60.0        305       1293        462      -0.65       0.00       0.00      0.000
4:47am             91          0          0         47         83       73.5       60.0      29.59       60.0        305       1293        462      -0.64       0.00       0.00      0.000
4:48am             91          0          0         47         83       73.5       60.0      29.59       60.0        305       1293        461      -0.63       0.00       0.00      0.000
4:49am             91          0          0         47         83       73.5       60.0      29.59       60.0        305       1293        461      -0.62       0.00       0.00      0.000
4:50am             91          0          0         47         83       73.5       60.0      29.59       60.0        305       1293        461      -0.61       0.00       0.00      0.000
4:51am             91          0          0         47         83       73.5       60.0      29.59       60.0        305       1293        461      -0.60       0.00       0.00      0.000
4:52am             91          0          0         47         83       73.5       60.0      29.59       60.0        304       1293        460      -0.59       0.00       0.00      0.000
4:53am             91          0          0         47         83       73.5       60.1      29.59       60.1        304       1293        466      -0.48       0.00       0.00      0.000
4:54am             91          0          0         47         83       73.3       60.1      29.59       60.1        303       1293        465      -0.47       0.00       0.00      0.000
4:55am             91          0          0         47         82       73.3       60.1      29.59       60.1        303       1376        465      -0.46       0.00       0.00      0.000
4:56am             91          0          0         47         82       73.3       60.1      29.60       60.1        302       1376        464      -0.45       0.00       0.00      0.000
4:57am             91          0          0         47         82       73.3       60.1      29.60       60.1        302       1376        464      -0.45       0.00       0.00      0.000
4:58am             91          1          2         47         82       73.3       60.1      29.60       60.1        302       1376        464      -0.44       0.00       0.00      0.000
4:59am             91          1          2         47         82       73.3       60.1      29.60       60.1        301       1376        463      -0.43       0.00       0.00      0.000
5:00am             91          1          2         47         82       73.3       60.1      29.60       60.1        301       1376        463      -0.43       0.00       0.00      0.000
5:01am             91          0          1         47         82       73.3       60.2      29.60       60.2        301       1377        470      -0.32       0.00       0.00      0.000
5:02am             91          0          1         47         82       73.1       60.2      29.60       60.2        301       1377        470      -0.31       0.00       0.00      0.000
5:03am             91          0          1         47         82       73.1       60.2      29.60       60.2        301       1377        470      -0.31       0.00       0.00      0.000
5:04am             91          0          1         47         81       73.1       60.2      29.60       60.2        301       1461        470      -0.30       0.00       0.00      0.000
5:05am             91          0          1         47         81       73.1       60.2      29.60       60.2        301       1461        470      -0.30       0.00       0.00      0.000
5:06am             91          0          1         47         81       73.1       60.3      29.60       60.3        301       1462        476      -0.19       0.00       0.00      0.000
5:07am             91          1          1         47         81       73.1       60.3      29.60       60.3        301       1462        476      -0.19       0.00       0.00      0.000
5:08am             91          2          2         47         81       73.1       60.3      29.60       60.3        301       1462        476      -0.19       0.00       0.00      0.000
5:09am             91          1          2         47         81       73.1       60.3      29.60       60.3        301       1462        476      -0.19       0.00       0.00      0.000
5:10am             91          0          2         47         81       73.1       60.3      29.60       60.3        301       1462        476      -0.18       0.00       0.00      0.000
5:11am             91          1          1         47         81       73.1       60.3      29.60       60.3        301       1462        476      -0.18       0.00       0.00      0.000
5:12am             91          1          2         47         81       73.1       60.3      29.60       60.3        301       1462        476      -0.18       0.00       0.00      0.000
5:13am             91          1          2         47         81       73.1       60.3      29.60       60.3        301       1462        476      -0.17       0.00       0.00      0.000
5:14am             91          1          2         47         81       73.1       60.3      29.60       60.3        301       1462        476      -0.17       0.00       0.00      0.000
5:15am             91          1          2         47         81       73.1       60.3      29.60       60.3        301       1462        476      -0.17       0.00       0.00      0.000
5:16am             91          1          1         47         81       73.1       60.3      29.60       60.3        301       1462        476      -0.17       0.00       0.00      0.000
5:17am             91          1          1         48         81       73.1       60.3      29.60       60.3        300       1462        475      -0.16       0.00       0.00      0.000
5:18am             91          0          1         47         81       73.1       60.3      29.60       60.3        301       1462        476      -0.16       0.00       0.00      0.000
5:19am             91          0          1         47         81       73.1       60.2      29.60       60.2        300       1461        468      -0.26       0.00       0.00      0.000
5:20am             91          0          1         47         81       73.1       60.3      29.60       60.3        300       1462        475      -0.15       0.00       0.00      0.000
5:21am             91          0          0         47         80       73.1       60.3      29.60       60.3        300       1547        475      -0.15       0.00       0.00      0.000
5:22am             91          0          0         48         80       73.1       60.3      29.60       60.3        300       1547        475      -0.15       0.00       0.00      0.000
5:23am             91          0          0         47         81       73.1       60.3      29.60       60.3        299       1462        474      -0.15       0.00       0.00      0.000
5:24am             91          0          0         47         81       73.1       60.2      29.60       60.2        299       1461        467      -0.24       0.00       0.00      0.000
5:25am             91          0          0         47         81       73.1       60.2      29.60       60.2        299       1461        467      -0.24       0.00       0.00      0.000
5:26am             91          0          0         47         81       73.1       60.2      29.60       60.2        299       1461        467      -0.24       0.00       0.00      0.000
5:27am             91          0          0         47         81       73.1       60.2      29.60       60.2        299       1461        467      -0.23       0.00       0.00      0.000
5:28am             91          0          0         47         81       73.1       60.2      29.60       60.2        298       1461        466      -0.23       0.00       0.00      0.000
5:29am             91          0          0         47         81       73.1       60.2      29.60       60.2        298       1461        466      -0.22       0.00       0.00      0.000
5:30am             91          0          0         47         81       73.1       60.2      29.60       60.2        295       1461        463      -0.22       0.00       0.00      0.000
5:31am             91          0          0         47         81       73.1       60.2      29.60       60.2        294       1461        460      -0.22       0.00       0.00      0.000
5:32am             91          0          3         47         81       73.1       60.2      29.60       60.2        294       1461        460      -0.21       0.00       0.00      0.000
5:33am             91          0          3         47         81       73.1       60.2      29.61       60.2        292       1461        458      -0.21       0.00       0.00      0.000
5:34am             91          0          3         47         81       73.1       60.2      29.61       60.2        291       1461        457      -0.21       0.00       0.00      0.000
5:35am             91          0          3         47         82       73.1       60.2      29.61       60.2        291       1377        457      -0.20       0.00       0.00      0.000
5:36am             91          0          0         47         82       73.1       60.2      29.61       60.2        292       1377        458      -0.20       0.00       0.00      0.000
5:37am             91          0          0         47         82       73.1       60.2      29.61       60.2        292       1377        458      -0.20       0.00       0.00      0.000
5:38am             91          0          0         47         82       73.1       60.1      29.61       60.1        292       1376        452      -0.29       0.00       0.00      0.000
5:39am             91          0          0         47         82       73.1       60.1      29.61       60.1        291       1376        451      -0.29       0.00       0.00      0.000
5:40am             91          0          0         47         82       73.1       60.1      29.61       60.1        289       1376        448      -0.28       0.00       0.00      0.000
5:41am             91          0          0         47         82       73.1       60.1      29.61       60.1        289       1376        448      -0.28       0.00       0.00      0.000
5:42am             91          0          0         47         82       73.3       60.1      29.61       60.1        289       1376        448      -0.27       0.00       0.00      0.000
5:43am             91          0          0         47         82       73.3       60.0      29.61       60.0        289       1376        442      -0.37       0.00       0.00      0.000
5:44am             91          0          0         47         82       73.1       60.0      29.61       60.0        289       1376        442      -0.36       0.00       0.00      0.000
5:45am             91          0          0         47         82       73.1       59.9      29.61       59.9        289       1375        435      -0.45       0.00       0.00      0.000
5:46am             91          0          0         47         82       73.3       59.9      29.61       59.9        288       1375        434      -0.45       0.00       0.00      0.000
5:47am             91          0          0         47         82       73.3       59.9      29.61       59.9        288       1375        434      -0.44       0.00       0.00      0.000
5:48am             91          0          0         47         82       73.3       59.9      29.61       59.9        290       1375        436      -0.43       0.00       0.00      0.000
5:49am             91          0          0         47         82       73.3       59.8      29.61       59.8        290       1375        430      -0.53       0.00       0.00      0.000
5:50am             91          0          0         47         82       73.3       59.8      29.61       59.8        290       1375        430      -0.52       0.00       0.00      0.000
5:51am             91          0          0         47         82       73.3       59.8      29.61       59.8        289       1375        429      -0.51       0.00       0.00      0.000
5:52am             91          0          0         47         82       73.3       59.7      29.61       59.7        289       1374        422      -0.60       0.00       0.00      0.000
5:53am             91          0          0         47         82       73.3       59.7      29.61       59.7        287       1374        420      -0.59       0.00       0.00      0.000
5:54am             91          0          0         47         82       73.3       59.7      29.61       59.7        288       1374        421      -0.58       0.00       0.00      0.000
5:55am             91          0          0         47         82       73.3       59.7      29.61       59.7        288       1374        421      -0.57       0.00       0.00      0.000
5:56am             91          0          0         47         82       73.3       59.7      29.61       59.7        288       1374        421      -0.56       0.00       0.00      0.000
5:57am             91          0          0         47         82       73.3       59.7      29.61       59.7        288       1374        421      -0.55       0.00       0.00      0.000
5:58am             91          0          0         47         82       73.3       59.7      29.61       59.7        286       1374        419      -0.54       0.00       0.00      0.000
5:59am             91          0          0         47         82       73.3       59.7      29.61       59.7        286       1374        419      -0.53       0.00       0.00      0.000
6:00am             91          0          0         47         82       73.3       59.6      29.61       59.6        286       1373        412      -0.62       0.00       0.00      0.000
6:01am             91          0          0         47         82       73.3       59.6      29.61       59.6        286       1373        412      -0.62       0.00       0.00      0.000
6:02am             91          0          0         47         81       73.3       59.6      29.61       59.6        286       1457        412      -0.61       0.00       0.00      0.000
6:03am             91          0          0         47         82       73.3       59.6      29.61       59.6        285       1373        411      -0.60       0.00       0.00      0.000
6:04am             91          0          0         47         82       73.3       59.7      29.61       59.7        285       1374        418      -0.49       0.00       0.00      0.000
6:05am             91          0          0         47         81       73.3       59.6      29.61       59.6        285       1457        411      -0.58       0.00       0.00      0.000
6:06am             91          0          0         47         81       73.3       59.6      29.61       59.6        285       1457        411      -0.57       0.00       0.00      0.000
6:07am             91          0          0         47         81       73.3       59.6      29.61       59.6        285       1457        411      -0.56       0.00       0.00      0.000
6:08am             91          0          0         47         82       73.3       59.6      29.61       59.6        285       1373        411      -0.55       0.00       0.00      0.000
6:09am             91          0          0         47         81       73.3       59.6      29.61       59.6        285       1457        411      -0.54       0.00       0.00      0.000
6:10am             91          0          0         47         81       73.3       59.6      29.61       59.6        284       1457        410      -0.53       0.00       0.00      0.000
6:11am             91          0          0         47         81       73.3       59.6      29.61       59.6        284       1457        410      -0.52       0.00       0.00      0.000
6:12am             91          0          0         47         82       73.3       59.6      29.61       59.6        284       1373        410      -0.51       0.00       0.00      0.000
6:13am             91          0          0         47         82       73.3       59.6      29.61       59.6        283       1373        409      -0.51       0.00       0.00      0.000
6:14am             91          0          0         47         81       73.3       59.6      29.61       59.6        283       1457        409      -0.50       0.00       0.00      0.000
6:15am             91          0          0         47         81       73.3       59.6      29.61       59.6        283       1457        409      -0.49       0.00       0.00      0.000
6:16am             91          0          0         47         81       73.3       59.6      29.61       59.6        283       1457        409      -0.48       0.00       0.00      0.000
6:17am             91          0          0         47         81       73.3       59.6      29.61       59.6        283       1457        409      -0.47       0.00       0.00      0.000
6:18am             91          0          0         47         81       73.3       59.6      29.61       59.6        283       1457        409      -0.46       0.00       0.00      0.000
6:19am             91          0          0         47         81       73.3       59.6      29.61       59.6        283       1457        409      -0.46       0.00       0.00      0.000
6:20am             91          0          0         47         81       73.5       59.6      29.62       59.6        283       1457        408      -0.45       0.00       0.00      0.000
6:21am             91          0          0         47         81       73.5       59.6      29.62       59.6        282       1457        406      -0.44       0.00       0.00      0.000
6:22am             91          0          0         47         81       73.5       59.6      29.62       59.6        281       1457        405      -0.43       0.00       0.00      0.000
6:23am             91          0          0         47         81       73.5       59.7      29.62       59.7        280       1458        411      -0.33       0.00       0.00      0.000
6:24am             91          0          0         47         81       73.5       59.7      29.62       59.7        279       1458        410      -0.32       0.00       0.00      0.000
6:25am             91          0          0         47         81       73.5       59.7      29.62       59.7        280       1458        411      -0.32       0.00       0.00      0.000
6:26am             91          0          0         47         81       73.5       59.8      29.62       59.8        280       1459        417      -0.21       0.00       0.00      0.000
6:27am             91          0          0         47         80       73.5       59.9      29.62       59.9        281       1544        425      -0.11       0.00       0.00      0.000
6:28am             91          0          0         47         80       73.5       60.0      29.62       60.0        281       1545        432      -0.01       0.00       0.00      0.000
6:29am             91          0          0         47         80       73.5       60.0      29.62       60.0        281       1545        432      -0.01       0.00       0.00      0.000
6:30am             91          0          0         47         80       73.5       60.1      29.62       60.1        280       1545        437       0.09       0.00       0.00      0.000
6:31am             91          0          0         47         80       73.5       60.1      29.62       60.1        281       1545        438       0.09       0.00       0.00      0.000
6:32am             91          0          0         47         80       73.5       60.2      29.62       60.2        281       1546        445       0.19       0.00       0.00      0.000
6:33am             91          0          0         47         80       73.5       60.2      29.62       60.2        280       1546        444       0.18       0.00       0.00      0.000
6:34am             91          0          0         47         80       73.5       60.3      29.62       60.3        280       1547        450       0.28       0.00       0.00      0.000
6:35am             91          0          0         47         80       73.5       60.4      29.62       60.4        279       1547        455       0.37       0.00       0.00      0.000
6:36am             91          0          0         47         80       73.5       60.5      29.62       60.5        279       1548        462       0.47       0.00       0.00      0.000
6:37am             91          0          0         47         79       73.5       60.6      29.62       60.6        278       1635        467       0.56       0.00       0.00      0.000
6:38am             91          0          0         47         79       73.5       60.6      29.62       60.6        278       1635        467       0.55       0.00       0.00      0.000
6:39am             91          0          0         47         79       73.5       60.7      29.62       60.7        278       1636        474       0.64       0.00       0.00      0.000
6:40am             91          0          0         47         79       73.5       60.7      29.62       60.7        277       1636        473       0.63       0.00       0.00      0.000
6:41am             91          0          0         47         79       73.5       60.9      29.62       60.9        277       1637        486       0.81       0.00       0.00      0.000
6:42am             91          0          0         47         79       73.5       60.9      29.62       60.9        276       1637        485       0.80       0.00       0.00      0.000
6:43am             91          0          0         47         79       73.5       60.9      29.62       60.9        275       1637        484       0.79       0.00       0.00      0.000
6:44am             91          0          0         47         79       73.5       61.0      29.62       61.0        274       1638        489       0.87       0.00       0.00      0.000
6:45am             91          0          0         47         79       73.5       61.1      29.62       61.1        274       1638        496       0.96       0.00       0.00      0.000
6:46am             91          0          0         47         79       73.5       61.1      29.63       61.1        273       1638        495       0.94       0.00       0.00      0.000
6:47am             91          0          0         47         79       73.5       61.2      29.63       61.2        273       1639        501       1.03       0.00       0.00      0.000
6:48am             91          0          0         47         78       73.5       61.3      29.63       61.3        272       1727        506       1.11       0.00       0.00      0.000
6:49am             91          0          0         47         78       73.5       61.3      29.63       61.3        272       1727        506       1.09       0.00       0.00      0.000
6:50am             91          0          0         47         78       73.5       61.3      29.63       61.3        272       1727        506       1.07       0.00       0.00      0.000
6:51am             91          0          0         47         78       73.5       61.4      29.63       61.4        272       1728        513       1.16       0.00       0.00      0.000
6:52am             91          0          0         47         78       73.5       61.4      29.63       61.4        272       1728        513       1.14       0.00       0.00      0.000
6:53am             91          0          0         47         77       73.6       61.4      29.63       61.4        272       1816        513       1.12       0.00       0.00      0.000
6:54am             91          0          0         47         77       73.6       61.5      29.63       61.5        272       1817        518       1.20       0.00       0.00      0.000
6:55am             91          0          0         47         77       73.6       61.6      29.63       61.6        272       1818        525       1.28       0.00       0.00      0.000
6:56am             91          0          0         47         77       73.6       61.7      29.63       61.7        272       1819        531       1.35       0.00       0.00      0.000
6:57am             91          0          0         47         77       73.6       61.7      29.63       61.7        272       1819        531       1.33       0.00       0.00      0.000
6:58am             91          0          0         47         77       73.6       61.8      29.63       61.8        271       1819        537       1.41       0.00       0.00      0.000
6:59am             91          0          0         47         76       73.6       61.8      29.63       61.8        271       1909        537       1.39       0.00       0.00      0.000
7:00am             91          0          0         47         76       73.6       61.9      29.63       61.9        270       1910        542       1.46       0.00       0.00      0.000
7:01am             91          0          0         47         76       73.6       61.9      29.63       61.9        270       1910        542       1.44       0.00       0.00      0.000
7:02am             91          0          0         47         76       73.6       62.0      29.63       62.0        270       1910        549       1.51       0.00       0.00      0.000
7:03am             91          0          0         47         76       73.6       62.1      29.63       62.1        269       1911        554       1.59       0.00       0.00      0.000
7:04am             91          0          0         47         76       73.6       62.2      29.63       62.2        269       1912        561       1.66       0.00       0.00      0.000
7:05am             91          1          1         47         76       73.6       62.2      29.63       62.2        268       1912        560       1.63       0.00       0.00      0.000
7:06am             91          1          2         47         76       73.6       62.3      29.63       62.3        268       1913        566       1.71       0.00       0.00      0.000
7:07am             91          0          2         47         75       73.6       62.3      29.63       62.3        267       2004        565       1.68       0.00       0.00      0.000
7:08am             91          1          2         47         75       73.6       62.4      29.63       62.4        266       2005        570       1.75       0.00       0.00      0.000
7:09am             91          1          3         47         75       73.6       62.4      29.63       62.4        266       2005        570       1.72       0.00       0.00      0.000
7:10am             91          0          3         47         75       73.6       62.5      29.63       62.5        266       2005        577       1.79       0.00       0.00      0.000
7:11am             91          2          2         47         76       73.6       62.5      29.63       62.5        265       1915        576       1.76       0.00       0.00      0.000
7:12am             91          0          2         47         75       73.6       62.6      29.63       62.6        266       2006        583       1.83       0.00       0.00      0.000
7:13am             91          1          2         47         75       73.6       62.6      29.63       62.6        265       2006        582       1.80       0.00       0.00      0.000
7:14am             91          0          2         47         75       73.6       62.7      29.64       62.7        264       2007        588       1.87       0.00       0.00      0.000
7:15am             91          0          2         47         75       73.6       62.7      29.64       62.7        264       2007        588       1.84       0.00       0.00      0.000
7:16am             91          0          0         47         75       73.6       62.9      29.64       62.9        264       2009        601       2.01       0.00       0.00      0.000
7:17am             91          0          0         47         75       73.6       63.0      29.64       63.0        264       2010        607       2.07       0.00       0.00      0.000
7:18am             91          0          0         47         74       73.6       63.1      29.64       63.1        264       2103        614       2.14       0.00       0.00      0.000
7:19am             91          0          0         47         74       73.6       63.2      29.64       63.2        264       2104        620       2.20       0.00       0.00      0.000
7:20am             91          0          0         47         74       73.6       63.3      29.64       63.3        264       2104        627       2.26       0.00       0.00      0.000
7:21am             91          0          0         47         74       73.6       63.4      29.64       63.4        263       2105        632       2.33       0.00       0.00      0.000
7:22am             91          0          0         47         74       73.6       63.5      29.64       63.5        263       2106        639       2.39       0.00       0.00      0.000
7:23am             91          0          0         47         74       73.6       63.7      29.64       63.7        261       2108        649       2.55       0.00       0.00      0.000
7:24am             91          0          0         47         74       73.6       63.8      29.64       63.8        260       2109        654       2.60       0.00       0.00      0.000
7:25am             91          0          0         47         73       73.8       63.9      29.64       63.9        260       2203        660       2.66       0.00       0.00      0.000
7:26am             91          0          0         47         74       73.8       64.0      29.64       64.0        260       2111        667       2.71       0.00       0.00      0.000
7:27am             91          0          0         47         74       73.8       64.1      29.64       64.1        259       2112        672       2.77       0.00       0.00      0.000
7:28am             91          0          0         47         73       73.8       64.2      29.64       64.2        259       2206        678       2.82       0.00       0.00      0.000
7:29am             91          0          0         47         73       73.8       64.4      29.64       64.4        259       2208        691       2.97       0.00       0.00      0.000
7:30am             91          0          0         47         72       73.8       64.5      29.64       64.5        259       2304        698       3.02       0.00       0.00      0.000
7:31am             91          1          1         47         72       73.8       64.6      29.64       64.6        259       2305        704       3.07       0.00       0.00      0.000
7:32am             91          0          1         47         72       73.6       64.7      29.64       64.7        258       2306        710       3.12       0.00       0.00      0.000
7:33am             91          1          1         47         73       73.6       64.8      29.64       64.8        258       2212        716       3.17       0.00       0.00      0.000
7:34am             91          1          3         47         72       73.6       64.9      29.64       64.9        258       2308        723       3.22       0.00       0.00      0.000
7:35am             91          0          3         47         72       73.6       64.9      29.64       64.9        258       2308        723       3.17       0.00       0.00      0.000
7:36am             91          0          1         47         72       73.6       64.9      29.64       64.9        258       2308        723       3.11       0.00       0.00      0.000
7:37am             91          1          2         47         72       73.6       65.0      29.64       65.0        258       2309        729       3.16       0.00       0.00      0.000
7:38am             91          0          2         47         72       73.6       65.2      29.64       65.2        258       2311        742       3.30       0.00       0.00      0.000
7:39am             91          1          2         47         73       73.6       65.3      29.64       65.3        257       2216        747       3.35       0.00       0.00      0.000
7:40am             91          1          2         47         72       73.6       65.5      29.64       65.5        257       2314        760       3.49       0.00       0.00      0.000
7:41am             91          1          3         47         71       73.5       65.6      29.64       65.6        257       2411        767       3.53       0.00       0.00      0.000
7:42am             91          1          3         47         71       73.5       65.6      29.64       65.6        256       2411        766       3.48       0.00       0.00      0.000
7:43am             91          3          3         47         71       73.5       65.7      29.64       65.7        256       2412        772       3.52       0.00       0.00      0.000
7:44am             91          0          3         47         71       73.5       65.8      29.64       65.8        256       2413        779       3.56       0.00       0.00      0.000
7:45am             91          0          3         47         71       73.5       66.0      29.64       66.0        256       2415        792       3.70       0.00       0.00      0.000
7:46am             91          0          1         47         71       73.5       66.1      29.64       66.1        256       2416        798       3.74       0.00       0.00      0.000
7:47am             91          0          1         47         71       73.5       66.3      29.64       66.3        256       2418        811       3.87       0.00       0.00      0.000
7:48am             91          2          2         47         71       73.5       66.3      29.65       66.3        255       2418        810       3.81       0.00       0.00      0.000
7:49am             91          2          3         47         70       73.5       66.4      29.65       66.4        254       2517        815       3.84       0.00       0.00      0.000
7:50am             91          3          4         47         71       73.5       66.5      29.65       66.5        253       2420        820       3.88       0.00       0.00      0.000
7:51am             91          1          3         47         70       73.5       66.6      29.65       66.6        254       2520        828       3.92       0.00       0.00      0.000
7:52am             91          3          3         47         70       73.5       66.6      29.65       66.6        254       2520        828       3.85       0.00       0.00      0.000
7:53am             91          2          3         47         70       73.5       66.7      29.65       66.7        254       2521        835       3.89       0.00       0.00      0.000
7:54am             91          0          3         47         70       73.5       66.8      29.65       66.8        255       2522        842       3.92       0.00       0.00      0.000
7:55am             91          2          3         47         70       73.5       66.9      29.65       66.9        254       2523        847       3.96       0.00       0.00      0.000
7:56am             91          1          4         47         69       73.5       67.0      29.65       67.0        255       2623        855       3.99       0.00       0.00      0.000
7:57am             91          1          4         47         70       73.5       67.1      29.65       67.1        254       2525        860       4.03       0.00       0.00      0.000
7:58am             91          1          4         47         70       73.5       67.2      29.65       67.2        254       2526        867       4.05       0.00       0.00      0.000
7:59am             91          1          4         47         70       73.5       67.2      29.65       67.2        254       2526        867       3.99       0.00       0.00      0.000
8:00am             91          1          4         47         70       73.5       67.3      29.65       67.3        254       2527        873       4.02       0.00       0.00      0.000
8:01am             91          2          4         47         69       73.5       67.5      29.65       67.5        255       2629        887       4.15       0.00       0.00      0.000
8:02am             91          2          5         47         69       73.5       67.5      29.64       67.5        256       2629        888       4.09       0.00       0.00      0.000
8:03am             91          1          5         47         69       73.5       67.5      29.65       67.5        255       2629        887       4.02       0.00       0.00      0.000
8:04am             91          0          5         48         69       73.5       67.5      29.65       67.5        255       2629        887       3.95       0.00       0.00      0.000
8:05am             91          2          5         47         69       73.5       67.4      29.65       67.4        255       2628        881       3.79       0.00       0.00      0.000
8:06am             56          3          6         47         68       73.5       67.4      29.65       67.4        255       2729        881       3.73       0.00       0.00      0.000
8:07am             76          4          6         47         68       73.5       67.3      29.65       67.3        255       2728        874       3.56       0.00       0.00      0.000
8:08am             83          1          6         47         67       73.5       67.3      29.65       67.3        254       2830        873       3.51       0.00       0.00      0.000
8:09am             83          1          6         47         68       73.3       67.3      29.65       67.3        252       2728        871       3.45       0.00       0.00      0.000
8:10am             83          2          6         47         68       73.3       67.4      29.65       67.4        250       2729        875       3.49       0.00       0.00      0.000
8:11am             83          3          5         47         67       73.3       67.4      29.65       67.4        250       2831        874       3.43       0.00       0.00      0.000
8:12am             79          7          7         47         67       73.3       67.4      29.65       67.4        249       2831        873       3.37       0.00       0.00      0.000
8:13am             86          2          7         47         67       73.3       67.4      29.65       67.4        250       2831        875       3.32       0.00       0.00      0.000
8:14am             86          1          7         46         68       73.3       67.4      29.65       67.4        250       2729        874       3.26       0.00       0.00      0.000
8:15am             87          2          7         46         66       73.3       67.4      29.65       67.4        249       2935        873       3.21       0.00       0.00      0.000
8:16am             95          8          8         47         67       73.1       67.5      29.65       67.5        250       2832        880       3.25       0.00       0.00      0.000
8:17am             83          3          8         46         66       73.1       67.4      29.65       67.4        249       2935        873       3.10       0.00       0.00      0.000
8:18am             83          0          8         46         67       73.1       67.4      29.65       67.4        249       2831        873       3.05       0.00       0.00      0.000
8:19am             97          2          8         46         66       73.1       67.4      29.65       67.4        249       2935        873       3.00       0.00       0.00      0.000
8:20am             64          7          8         46         67       73.1       67.4      29.65       67.4        250       2831        874       2.95       0.00       0.00      0.000
8:21am             57          4          9         46         66       73.1       67.4      29.65       67.4        249       2935        873       2.90       0.00       0.00      0.000
8:22am             87          2          9         46         67       73.1       67.4      29.65       67.4        248       2831        872       2.86       0.00       0.00      0.000
8:23am             98          6          9         46         67       73.0       67.4      29.65       67.4        247       2831        871       2.81       0.00       0.00      0.000
8:24am             80          1          9         46         67       73.0       67.4      29.66       67.4        246       2831        870       2.76       0.00       0.00      0.000
8:25am             84          6          9         46         67       73.0       67.4      29.66       67.4        246       2831        870       2.72       0.00       0.00      0.000
8:26am             44          3          8         46         65       73.0       67.4      29.66       67.4        246       3040        870       2.67       0.00       0.00      0.000
8:27am             79          5          8         46         66       73.0       67.4      29.66       67.4        246       2935        870       2.63       0.00       0.00      0.000
8:28am             82          4          8         46         66       73.0       67.4      29.66       67.4        246       2935        870       2.58       0.00       0.00      0.000
8:29am             83          5          8         46         67       73.0       67.4      29.66       67.4        245       2831        868       2.54       0.00       0.00      0.000
8:30am             31          5          8         46         67       73.0       67.4      29.66       67.4        244       2831        867       2.50       0.00       0.00      0.000
8:31am             82          3          5         46         67       73.0       67.4      29.66       67.4        244       2831        867       2.46       0.00       0.00      0.000
8:32am             82          4          5         46         67       73.0       67.4      29.66       67.4        244       2831        867       2.42       0.00       0.00      0.000
8:33am             82          0          5         46         67       73.0       67.5      29.66       67.5        245       2832        875       2.48       0.00       0.00      0.000
8:34am             82          2          5         46         67       73.0       67.5      29.66       67.5        244       2832        874       2.43       0.00       0.00      0.000
8:35am             81          4          5         46         67       73.0       67.6      29.66       67.6        245       2834        881       2.49       0.00       0.00      0.000
8:36am             81          3          5         46         66       73.0       67.6      29.66       67.6        244       2937        880       2.45       0.00       0.00      0.000
8:37am             82          4          5         46         66       73.0       67.7      29.66       67.7        245       2939        888       2.51       0.00       0.00      0.000
8:38am             82          3          5         46         66       73.0       67.8      29.66       67.8        245       2940        894       2.57       0.00       0.00      0.000
8:39am             82          3          5         46         67       73.0       67.8      29.66       67.8        245       2836        894       2.53       0.00       0.00      0.000
8:40am             82          2          5         46         67       73.0       67.9      29.66       67.9        244       2837        899       2.58       0.00       0.00      0.000
8:41am             82          5          5         46         67       73.0       67.8      29.66       67.8        244       2836        893       2.44       0.00       0.00      0.000
8:42am             52          2          7         46         66       73.0       67.9      29.66       67.9        244       2941        899       2.50       0.00       0.00      0.000
8:43am             79          2          7         46         66       73.0       67.9      29.66       67.9        244       2941        899       2.46       0.00       0.00      0.000
8:44am             77          2          7         46         66       73.0       67.9      29.66       67.9        244       2941        899       2.42       0.00       0.00      0.000
8:45am             78          2          7         46         66       73.0       67.9      29.66       67.9        244       2941        899       2.38       0.00       0.00      0.000
8:46am             78          1          2         46         67       73.0       68.1      29.66       68.1        244       2840        912       2.53       0.00       0.00      0.000
8:47am             81          5          5         46         67       73.0       68.2      29.66       68.2        243       2841        918       2.59       0.00       0.00      0.000
8:48am             81          5          6         46         66       73.0       68.3      29.66       68.3        243       2946        924       2.65       0.00       0.00      0.000
8:49am             81          2          6         46         66       73.0       68.3      29.66       68.3        243       2946        924       2.61       0.00       0.00      0.000
8:50am             81          1          6         46         67       73.0       68.3      29.66       68.3        244       2842        925       2.56       0.00       0.00      0.000
8:51am             17          1          3         46         67       73.0       68.4      29.66       68.4        243       2843        930       2.62       0.00       0.00      0.000
8:52am             82          2          3         46         67       73.0       68.4      29.66       68.4        243       2843        930       2.58       0.00       0.00      0.000
8:53am             25          3          8         46         66       73.0       68.6      29.66       68.6        243       2950        943       2.73       0.00       0.00      0.000
8:54am             81          1          8         46         65       73.0       68.6      29.66       68.6        243       3055        943       2.69       0.00       0.00      0.000
8:55am             81          5          8         46         65       73.0       68.6      29.66       68.6        243       3055        943       2.64       0.00       0.00      0.000
8:56am             65          3          7         46         65       73.1       68.5      29.66       68.5        243       3054        937       2.50       0.00       0.00      0.000
8:57am             81          2          7         46         65       73.1       68.5      29.66       68.5        243       3054        937       2.46       0.00       0.00      0.000
8:58am             81          1          7         46         66       73.1       68.5      29.66       68.5        243       2948        937       2.42       0.00       0.00      0.000
8:59am             81          6          8         46         66       73.1       68.5      29.66       68.5        243       2948        937       2.38       0.00       0.00      0.000
9:00am             81          2          8         46         65       73.1       68.4      29.66       68.4        243       3053        930       2.24       0.00       0.00      0.000
9:01am             81          5          5         46         66       73.1       68.5      29.66       68.5        243       2948        937       2.30       0.00       0.00      0.000
9:02am             81          3          5         46         66       73.1       68.5      29.66       68.5        243       2948        937       2.26       0.00       0.00      0.000
9:03am             83          2          6         46         65       73.1       68.5      29.66       68.5        243       3054        937       2.23       0.00       0.00      0.000
9:04am             83          4          6         46         66       73.1       68.5      29.66       68.5        243       2948        937       2.19       0.00       0.00      0.000
9:05am            102          6          6         46         66       73.1       68.5      29.66       68.5        243       2948        937       2.15       0.00       0.00      0.000
9:06am             77          4          6         46         66       73.1       68.5      29.66       68.5        243       2948        937       2.12       0.00       0.00      0.000
9:07am             77          3          6         46         66       73.1       68.6      29.66       68.6        243       2950        943       2.18       0.00       0.00      0.000
9:08am             69          3          6         46         66       73.1       68.5      29.66       68.5        243       2948        937       2.05       0.00       0.00      0.000
9:09am             75          3          6         46         67       73.1       68.5      29.66       68.5        243       2844        937       2.01       0.00       0.00      0.000
9:10am             76          4          6         46         67       73.1       68.6      29.66       68.6        243       2846        943       2.08       0.00       0.00      0.000
9:11am             79          1          6         46         67       73.1       68.6      29.66       68.6        243       2846        943       2.04       0.00       0.00      0.000
9:12am             81          2          6         46         67       73.1       68.7      29.66       68.7        243       2847        950       2.11       0.00       0.00      0.000
9:13am             81          2          6         46         67       73.1       68.8      29.66       68.8        244       2848        957       2.17       0.00       0.00      0.000
9:14am             81          1          6         46         67       73.1       69.0      29.66       69.0        244       2850        970       2.33       0.00       0.00      0.000
9:15am             77          3          7         46         67       73.1       69.2      29.66       69.2        244       2853        983       2.50       0.00       0.00      0.000
9:16am             68          2          3         46         66       73.1       69.3      29.66       69.3        244       2958        989       2.55       0.00       0.00      0.000
9:17am             70          2          3         46         66       73.1       69.4      29.66       69.4        244       2960        996       2.61       0.00       0.00      0.000
9:18am             70          1          3         47         66       73.1       69.6      29.66       69.6        244       2962       1009       2.77       0.00       0.00      0.000
9:19am             77          3          4         46         66       73.1       69.7      29.66       69.7        244       2963       1015       2.82       0.00       0.00      0.000
9:20am             79          1          4         46         65       73.1       69.8      29.66       69.8        244       3071       1021       2.87       0.00       0.00      0.000
9:21am             79          0          2         46         65       73.1       69.9      29.66       69.9        244       3072       1028       2.93       0.00       0.00      0.000
9:22am             79          0          2         46         65       73.1       70.0      29.66       70.0        244       3073       1034       2.97       0.00       0.00      0.000
9:23am             79          1          2         46         65       73.1       70.1      29.66       70.1        244       3075       1041       3.03       0.00       0.00      0.000
9:24am             79          1          2         46         66       73.1       70.2      29.66       70.2        244       2970       1047       3.08       0.00       0.00      0.000
9:25am             79          1          3         46         65       73.3       70.3      29.66       70.3        244       3077       1053       3.13       0.00       0.00      0.000
9:26am             79          2          3         46         65       73.3       70.4      29.66       70.4        245       3078       1061       3.17       0.00       0.00      0.000
9:27am             70          1          5         46         65       73.3       70.5      29.66       70.5        245       3080       1067       3.22       0.00       0.00      0.000
9:28am             81          5          5         46         64       73.3       70.6      29.66       70.6        245       3189       1074       3.26       0.00       0.00      0.000
9:29am             40          2          5         46         65       73.3       70.7      29.66       70.7        245       3082       1080       3.31       0.00       0.00      0.000
9:30am             73          3          5         47         64       73.3       70.8      29.66       70.8        245       3192       1087       3.35       0.00       0.00      0.000
9:31am             73          1          3         46         64       73.3       70.8      29.66       70.8        245       3192       1087       3.30       0.00       0.00      0.000
9:32am             69          1          3         46         65       73.3       70.8      29.66       70.8        245       3084       1087       3.25       0.00       0.00      0.000
9:33am             69          1          3         46         64       73.3       71.0      29.66       71.0        245       3194       1099       3.39       0.00       0.00      0.000
9:34am             29          2          3         46         64       73.3       71.2      29.66       71.2        245       3197       1112       3.53       0.00       0.00      0.000
9:35am             69          3          3         47         64       73.3       71.2      29.66       71.2        245       3197       1112       3.47       0.00       0.00      0.000
9:36am             77          1          3         46         64       73.3       71.3      29.66       71.3        245       3198       1119       3.51       0.00       0.00      0.000
9:37am             76          0          3         46         64       73.3       71.4      29.66       71.4        245       3200       1125       3.56       0.00       0.00      0.000
9:38am             76          1          3         46         64       73.3       71.5      29.66       71.5        245       3201       1131       3.60       0.00       0.00      0.000
9:39am             76          1          3         46         64       73.3       71.6      29.66       71.6        245       3202       1138       3.63       0.00       0.00      0.000
9:40am             77          2          3         46         64       73.3       71.7      29.66       71.7        245       3204       1144       3.67       0.00       0.00      0.000
9:41am             77          3          3         46         64       73.3       71.8      29.66       71.8        245       3205       1150       3.71       0.00       0.00      0.000
9:42am            136          2          5         47         64       73.3       71.9      29.66       71.9        244       3206       1156       3.75       0.00       0.00      0.000
9:43am            125          3          5         47         64       73.3       71.9      29.66       71.9        244       3206       1156       3.69       0.00       0.00      0.000
9:44am            108          1          5         47         64       73.3       71.9      29.66       71.9        244       3206       1156       3.63       0.00       0.00      0.000
9:45am             99          4          5         47         64       73.3       71.9      29.66       71.9        244       3206       1156       3.57       0.00       0.00      0.000
9:46am             98          4          5         47         62       73.3       72.0      29.66       72.0        244       3429       1162       3.61       0.00       0.00      0.000
9:47am             98          0          5         46         63       73.3       71.9      29.66       71.9        244       3316       1156       3.45       0.00       0.00      0.000
9:48am             98          2          5         47         63       73.3       72.0      29.66       72.0        243       3318       1161       3.49       0.00       0.00      0.000
9:49am             98          3          5         47         63       73.3       72.0      29.66       72.0        243       3318       1161       3.43       0.00       0.00      0.000
9:50am             98          1          5         47         63       73.3       72.0      29.66       72.0        243       3318       1161       3.38       0.00       0.00      0.000
9:51am             98          0          1         46         63       73.3       72.0      29.66       72.0        244       3318       1162       3.32       0.00       0.00      0.000
9:52am             98          2          2         47         63       73.3       72.1      29.66       72.1        244       3319       1168       3.37       0.00       0.00      0.000
9:53am            167          3          4         46         64       73.3       72.2      29.66       72.2        244       3210       1175       3.41       0.00       0.00      0.000
9:54am            180          3          6         46         63       73.3       72.2      29.66       72.2        244       3320       1175       3.35       0.00       0.00      0.000
9:55am            180          0          6         47         64       73.3       72.3      29.66       72.3        244       3212       1181       3.40       0.00       0.00      0.000
9:56am            181          2          2         47         64       73.3       72.4      29.66       72.4        244       3213       1188       3.44       0.00       0.00      0.000
9:57am            172          3          4         47         63       73.3       72.5      29.66       72.5        244       3325       1194       3.48       0.00       0.00      0.000
9:58am            175          5          6         47         63       73.3       72.5      29.66       72.5        244       3325       1194       3.42       0.00       0.00      0.000
9:59am            100          3          6         47         62       73.3       72.5      29.66       72.5        244       3436       1194       3.37       0.00       0.00      0.000
10:00am            99          1          6         47         62       73.3       72.5      29.66       72.5        244       3436       1194       3.31       0.00       0.00      0.000
10:01am            99          2          4         47         62       73.5       72.6      29.66       72.6        244       3438       1200       3.36       0.00       0.00      0.000
10:02am           185          5          5         47         62       73.3       72.6      29.66       72.6        245       3438       1201       3.30       0.00       0.00      0.000
10:03am           150          2          6         47         61       73.3       72.7      29.66       72.7        245       3553       1208       3.35       0.00       0.00      0.000
10:04am           151          3          6         47         59       73.5       72.6      29.66       72.6        245       3783       1201       3.19       0.00       0.00      0.000
10:05am           156          3          6         47         58       73.5       72.6      29.66       72.6        246       3902       1202       3.14       0.00       0.00      0.000
10:06am           169          2          3         47         59       73.5       72.7      29.65       72.7        247       3785       1210       3.19       0.00       0.00      0.000
10:07am           172          1          3         47         60       73.5       72.8      29.65       72.8        247       3669       1216       3.23       0.00       0.00      0.000
10:08am           135          3          3         47         58       73.5       72.8      29.65       72.8        247       3905       1216       3.18       0.00       0.00      0.000
10:09am            70          3          4         47         58       73.5       72.9      29.66       72.9        246       3907       1222       3.23       0.00       0.00      0.000
10:10am            85          4          4         47         59       73.5       73.0      29.66       73.0        245       3789       1227       3.27       0.00       0.00      0.000
10:11am            61          3          4         47         60       73.5       73.3      29.66       73.3        245       3677       1246       3.52       0.00       0.00      0.000
10:12am            83          4          5         47         59       73.5       73.5      29.66       73.5        244       3797       1257       3.66       0.00       0.00      0.000
10:13am           180          6          9         47         58       73.5       73.6      29.66       73.6        245       3918       1265       3.69       0.00       0.00      0.000
10:14am           118          5          9         47         57       73.5       73.6      29.66       73.6        244       4039       1264       3.63       0.00       0.00      0.000
10:15am           133          0          9         47         57       73.5       73.5      29.66       73.5        244       4037       1257       3.47       0.00       0.00      0.000
10:16am           108          4          5         47         56       73.5       73.5      29.66       73.5        244       4160       1257       3.41       0.00       0.00      0.000
10:17am           163          3          5         47         57       73.5       73.5      29.66       73.5        244       4037       1257       3.36       0.00       0.00      0.000
10:18am           158          3          7         47         57       73.5       73.7      29.66       73.7        244       4040       1270       3.50       0.00       0.00      0.000
10:19am           119          2          7         47         56       73.5       73.7      29.66       73.7        244       4163       1270       3.44       0.00       0.00      0.000
10:20am           119          2          7         47         56       73.5       73.7      29.66       73.7        244       4163       1270       3.39       0.00       0.00      0.000
10:21am            90          3          3         48         56       73.5       73.8      29.66       73.8        243       4165       1275       3.43       0.00       0.00      0.000
10:22am            90          1          3         47         56       73.5       73.9      29.66       73.9        243       4167       1282       3.47       0.00       0.00      0.000
10:23am            90          0          3         47         56       73.5       74.1      29.66       74.1        244       4170       1296       3.62       0.00       0.00      0.000
10:24am           164          4          4         47         56       73.5       74.2      29.66       74.2        244       4172       1302       3.65       0.00       0.00      0.000
10:25am           219          3          4         47         58       73.5       74.3      29.66       74.3        244       3929       1308       3.69       0.00       0.00      0.000
10:26am           112          5          6         47         55       73.5       74.4      29.66       74.4        244       4300       1315       3.73       0.00       0.00      0.000
10:27am           166          3          6         47         55       73.5       74.3      29.66       74.3        243       4299       1307       3.57       0.00       0.00      0.000
10:28am           154          3          6         47         55       73.5       74.4      29.66       74.4        243       4300       1313       3.61       0.00       0.00      0.000
10:29am            81          5          6         47         54       73.6       74.4      29.66       74.4        243       4428       1313       3.55       0.00       0.00      0.000
10:30am            81          2          6         47         54       73.6       74.4      29.66       74.4        243       4428       1313       3.49       0.00       0.00      0.000
10:31am            81          3          3         47         54       73.6       74.5      29.66       74.5        243       4429       1320       3.53       0.00       0.00      0.000
10:32am            81          3          4         47         54       73.6       74.6      29.66       74.6        243       4431       1326       3.57       0.00       0.00      0.000
10:33am            52          2          6         47         54       73.6       74.6      29.66       74.6        243       4431       1326       3.51       0.00       0.00      0.000
10:34am            83          4          6         47         54       73.6       74.6      29.66       74.6        243       4431       1326       3.46       0.00       0.00      0.000
10:35am            83          2          6         47         55       73.5       74.7      29.66       74.7        243       4306       1332       3.50       0.00       0.00      0.000
10:36am            83          3          4         47         54       73.5       74.8      29.66       74.8        243       4435       1339       3.54       0.00       0.00      0.000
10:37am            77          4          5         47         54       73.5       74.9      29.66       74.9        243       4437       1345       3.58       0.00       0.00      0.000
10:38am           164          6          6         47         53       73.5       74.9      29.66       74.9        243       4566       1345       3.52       0.00       0.00      0.000
10:39am           182          3          7         47         51       73.5       74.8      29.66       74.8        243       4830       1339       3.37       0.00       0.00      0.000
10:40am           187          1          7         47         52       73.5       74.8      29.66       74.8        243       4696       1339       3.31       0.00       0.00      0.000
10:41am           119          1          3         47         52       73.5       74.7      29.66       74.7        243       4694       1332       3.15       0.00       0.00      0.000
10:42am           119          1          3         47         51       73.5       74.6      29.66       74.6        244       4826       1327       3.00       0.00       0.00      0.000
10:43am           120          1          3         47         53       73.5       74.7      29.66       74.7        244       4562       1334       3.05       0.00       0.00      0.000
10:44am           120          1          3         47         54       73.5       74.8      29.66       74.8        244       4435       1340       3.10       0.00       0.00      0.000
10:45am           128          1          3         47         54       73.5       75.1      29.66       75.1        244       4440       1359       3.35       0.00       0.00      0.000
10:46am           128          0          1         47         53       73.3       75.3      29.66       75.3        244       4574       1372       3.49       0.00       0.00      0.000
10:47am           128          3          3         47         54       73.3       75.4      29.66       75.4        244       4446       1378       3.53       0.00       0.00      0.000
10:48am           112          1          4         47         53       73.3       75.6      29.66       75.6        244       4579       1391       3.67       0.00       0.00      0.000
10:49am           112          1          4         47         54       73.3       75.8      29.66       75.8        244       4453       1403       3.81       0.00       0.00      0.000
10:50am           119          1          4         47         54       73.3       76.1      29.66       76.1        244       4459       1422       4.05       0.00       0.00      0.000
10:51am           258          3          6         47         52       73.3       76.3      29.66       76.3        244       4725       1435       4.17       0.00       0.00      0.000
10:52am           204          4          6         47         53       73.3       76.3      29.66       76.3        244       4592       1435       4.11       0.00       0.00      0.000
10:53am           252          3          6         47         54       73.3       76.2      29.66       76.2        245       4460       1430       3.94       0.00       0.00      0.000
10:54am           252          0          6         47         53       73.3       76.2      29.66       76.2        245       4591       1430       3.87       0.00       0.00      0.000
10:55am           142          1          6         47         55       73.3       76.3      29.66       76.3        245       4334       1436       3.91       0.00       0.00      0.000
10:56am           153          1          3         47         55       73.3       76.3      29.66       76.3        244       4334       1435       3.85       0.00       0.00      0.000
10:57am           171          3          4         47         54       73.3       76.4      29.66       76.4        244       4464       1441       3.88       0.00       0.00      0.000
10:58am           170          5          7         47         52       73.3       76.5      29.66       76.5        244       4729       1447       3.91       0.00       0.00      0.000
10:59am           199          5          7         47         52       73.3       76.4      29.66       76.4        244       4727       1441       3.75       0.00       0.00      0.000
11:00am           158          3          7         47         53       73.3       76.2      29.66       76.2        244       4591       1428       3.49       0.00       0.00      0.000
11:01am           230          2          3         47         52       73.3       76.2      29.66       76.2        244       4723       1428       3.43       0.00       0.00      0.000
11:02am           174          3          3         47         52       73.3       76.1      29.66       76.1        243       4721       1421       3.28       0.00       0.00      0.000
11:03am           174          2          3         47         53       73.3       76.0      29.66       76.0        244       4587       1416       3.13       0.00       0.00      0.000
11:04am           133          1          3         47         54       73.3       76.1      29.66       76.1        244       4459       1422       3.17       0.00       0.00      0.000
11:05am           133          0          3         47         55       73.3       76.2      29.66       76.2        244       4332       1428       3.22       0.00       0.00      0.000
11:06am           100          2          2         47         55       73.3       76.4      29.66       76.4        243       4336       1440       3.37       0.00       0.00      0.000
11:07am           100          3          4         47         55       73.3       76.7      29.66       76.7        244       4341       1460       3.61       0.00       0.00      0.000
11:08am           100          1          4         47         53       73.3       76.8      29.66       76.8        244       4602       1466       3.65       0.00       0.00      0.000
11:09am           162          5          7         47         52       73.3       76.8      29.66       76.8        243       4735       1465       3.59       0.00       0.00      0.000
11:10am           156          6          7         47         52       73.3       76.7      29.66       76.7        244       4733       1460       3.43       0.00       0.00      0.000
11:11am           177          2          7         47         52       73.3       76.4      29.66       76.4        244       4727       1441       3.07       0.00       0.00      0.000
11:12am           177          1          7         47         53       73.3       76.3      29.66       76.3        244       4592       1435       2.93       0.00       0.00      0.000
11:13am           178          2          7         47         54       73.3       76.3      29.66       76.3        244       4462       1435       2.88       0.00       0.00      0.000
11:14am           224          4          7         47         56       73.5       76.4      29.66       76.4        244       4210       1441       2.92       0.00       0.00      0.000
11:15am           179          3          7         47         53       73.5       76.3      29.66       76.3        244       4592       1435       2.78       0.00       0.00      0.000
11:16am           157          3          6         47         53       73.5       76.2      29.66       76.2        244       4591       1428       2.64       0.00       0.00      0.000
11:17am           158          1          6         47         52       73.5       76.1      29.66       76.1        244       4721       1422       2.49       0.00       0.00      0.000
11:18am           158          1          6         47         54       73.5       76.1      29.66       76.1        244       4459       1422       2.45       0.00       0.00      0.000
11:19am           158          0          6         47         55       73.5       76.2      29.66       76.2        244       4332       1428       2.51       0.00       0.00      0.000
11:20am           147          5          6         47         54       73.5       76.3      29.66       76.3        244       4462       1435       2.57       0.00       0.00      0.000
11:21am           181          2          7         47         55       73.5       76.4      29.66       76.4        244       4336       1441       2.63       0.00       0.00      0.000
11:22am           143          6          7         47         54       73.5       76.4      29.66       76.4        244       4464       1441       2.58       0.00       0.00      0.000
11:23am           195          2          7         47         54       73.3       76.5      29.66       76.5        244       4466       1447       2.64       0.00       0.00      0.000
11:24am           170          3          7         47         55       73.3       76.6      29.66       76.6        244       4339       1454       2.69       0.00       0.00      0.000
11:25am           170          5          7         47         54       73.3       76.6      29.66       76.6        243       4468       1453       2.65       0.00       0.00      0.000
11:26am           104          2          8         47         52       73.3       76.6      29.66       76.6        243       4731       1453       2.60       0.00       0.00      0.000
11:27am           104          1          8         47         53       73.3       76.6      29.66       76.6        243       4598       1453       2.56       0.00       0.00      0.000
11:28am           104          1          8         47         54       73.3       76.7      29.66       76.7        243       4470       1459       2.62       0.00       0.00      0.000
11:29am           104          1          8         47         54       73.3       76.8      29.66       76.8        243       4471       1465       2.67       0.00       0.00      0.000
11:30am           102          0          8         47         54       73.3       77.0      29.66       77.0        243       4475       1478       2.83       0.00       0.00      0.000
11:31am           102          1          2         46         54       73.1       77.2      29.66       77.2        243       4479       1490       2.98       0.00       0.00      0.000
11:32am           102          1          2         46         55       73.1       77.4      29.66       77.4        243       4354       1503       3.13       0.00       0.00      0.000
11:33am           186          5          5         47         54       73.1       77.5      29.66       77.5        243       4484       1509       3.18       0.00       0.00      0.000
11:34am           154          6          6         47         53       73.1       77.6      29.66       77.6        243       4617       1516       3.22       0.00       0.00      0.000
11:35am           132          2          6         47         53       73.1       77.6      29.66       77.6        243       4617       1516       3.17       0.00       0.00      0.000
11:36am           163          4          4         46         53       73.1       77.5      29.66       77.5        243       4615       1509       3.02       0.00       0.00      0.000
11:37am           147          1          4         47         53       73.1       77.5      29.66       77.5        243       4615       1509       2.97       0.00       0.00      0.000
11:38am           172          3          4         46         53       73.1       77.5      29.66       77.5        243       4615       1509       2.92       0.00       0.00      0.000
11:39am           209          3          4         47         53       73.1       77.4      29.66       77.4        243       4613       1503       2.77       0.00       0.00      0.000
11:40am           209          2          4         46         51       73.1       77.3      29.66       77.3        243       4879       1497       2.63       0.00       0.00      0.000
11:41am           178          4          4         46         53       73.1       77.2      29.66       77.2        243       4609       1490       2.49       0.00       0.00      0.000
11:42am           203          6          6         47         55       73.1       77.0      29.66       77.0        243       4347       1478       2.25       0.00       0.00      0.000
11:43am           172          5          7         47         54       73.1       76.9      29.66       76.9        243       4473       1471       2.11       0.00       0.00      0.000
11:44am           189          1          7         47         54       73.1       76.7      29.66       76.7        243       4470       1459       1.88       0.00       0.00      0.000
11:45am           189          1          7         47         52       73.1       76.7      29.66       76.7        243       4733       1459       1.85       0.00       0.00      0.000
11:46am           158          2          3         47         53       73.1       76.7      29.66       76.7        243       4600       1459       1.82       0.00       0.00      0.000
11:47am           158          1          3         47         54       73.1       76.8      29.66       76.8        243       4471       1465       1.89       0.00       0.00      0.000
11:48am           154          3          4         46         54       73.1       76.9      29.66       76.9        244       4473       1473       1.95       0.00       0.00      0.000
11:49am           154          1          4         47         56       73.1       77.0      29.66       77.0        243       4220       1478       2.02       0.00       0.00      0.000
11:50am           154          1          4         47         56       73.1       77.1      29.66       77.1        243       4222       1484       2.09       0.00       0.00      0.000
11:51am           154          1          2         47         54       73.1       77.2      29.66       77.2        243       4479       1490       2.15       0.00       0.00      0.000
11:52am           154          2          2         47         55       73.1       77.5      29.66       77.5        243       4356       1509       2.41       0.00       0.00      0.000
11:53am           156          2          2         47         55       73.1       77.7      29.66       77.7        243       4359       1522       2.57       0.00       0.00      0.000
11:54am           120          2          7         47         54       73.1       77.9      29.66       77.9        244       4492       1536       2.73       0.00       0.00      0.000
11:55am           193          2          7         47         54       73.1       77.8      29.66       77.8        243       4490       1528       2.58       0.00       0.00      0.000
11:56am            88          5          6         46         55       73.1       77.8      29.66       77.8        243       4361       1528       2.54       0.00       0.00      0.000
11:57am           166          5          9         46         54       73.1       77.7      29.66       77.7        243       4488       1522       2.40       0.00       0.00      0.000
11:58am           121          2          9         47         56       73.1       77.6      29.66       77.6        243       4231       1516       2.26       0.00       0.00      0.000
11:59am           170          5          9         47         54       73.1       77.6      29.66       77.6        243       4486       1516       2.23       0.00       0.00      0.000
12:00pm           155          1          9         47         53       73.1       77.5      29.66       77.5        243       4615       1509       2.09       0.00       0.00      0.000
12:01pm           154          0          2         47         54       73.1       77.5      29.66       77.5        243       4484       1509       2.06       0.00       0.00      0.000
12:02pm           154          1          2         47         54       73.1       77.5      29.66       77.5        244       4484       1510       2.02       0.00       0.00      0.000
12:03pm           241          3          4         47         56       73.1       77.7      29.66       77.7        244       4232       1523       2.19       0.00       0.00      0.000
12:04pm           201          4          9         47         53       73.1       77.6      29.66       77.6        243       4617       1516       2.05       0.00       0.00      0.000
12:05pm           202          0          9         46         53       73.1       77.5      29.66       77.5        243       4615       1509       1.92       0.00       0.00      0.000
12:06pm            87          3          4         47         54       73.1       77.5      29.66       77.5        244       4484       1510       1.89       0.00       0.00      0.000
12:07pm            87          1          5         46         53       73.1       77.6      29.66       77.6        244       4617       1517       1.95       0.00       0.00      0.000
12:08pm           164          5          5         46         55       73.1       77.6      29.66       77.6        243       4357       1516       1.92       0.00       0.00      0.000
12:09pm           133          3          7         47         54       73.1       77.7      29.66       77.7        243       4488       1522       1.99       0.00       0.00      0.000
12:10pm           147          7          7         46         53       73.1       77.6      29.66       77.6        243       4617       1516       1.86       0.00       0.00      0.000
12:11pm           139          2          7         46         54       73.1       77.5      29.66       77.5        243       4484       1509       1.73       0.00       0.00      0.000
12:12pm           181          2          7         46         54       73.0       77.4      29.66       77.4        243       4482       1503       1.60       0.00       0.00      0.000
12:13pm           174          3          7         46         55       73.0       77.4      29.66       77.4        243       4354       1503       1.57       0.00       0.00      0.000
12:14pm           133          2          7         46         53       73.0       77.3      29.66       77.3        243       4611       1497       1.45       0.00       0.00      0.000
12:15pm           133          1          7         46         53       73.0       77.3      29.66       77.3        243       4611       1497       1.43       0.00       0.00      0.000
12:16pm            93          1          2         46         54       73.0       77.4      29.66       77.4        243       4482       1503       1.50       0.00       0.00      0.000
12:17pm            93          1          2         46         53       73.0       77.5      29.66       77.5        243       4615       1509       1.57       0.00       0.00      0.000
12:18pm           135          3          6         46         54       73.0       77.6      29.66       77.6        244       4486       1517       1.65       0.00       0.00      0.000
12:19pm           184          7          7         46         55       73.0       77.6      29.66       77.6        243       4357       1516       1.62       0.00       0.00      0.000
12:20pm           124          3          7         46         54       73.0       77.7      29.66       77.7        243       4488       1522       1.69       0.00       0.00      0.000
12:21pm            93          3          5         46         54       73.0       77.8      29.66       77.8        244       4490       1529       1.76       0.00       0.00      0.000
12:22pm            89          4          6         46         54       73.0       77.9      29.66       77.9        244       4492       1536       1.83       0.00       0.00      0.000
12:23pm           125          1          6         46         53       73.0       77.9      29.66       77.9        244       4623       1536       1.80       0.00       0.00      0.000
12:24pm            98          4          8         46         53       73.0       77.9      29.66       77.9        244       4623       1536       1.77       0.00       0.00      0.000
12:25pm           184          2          8         46         53       73.0       77.8      29.66       77.8        244       4621       1529       1.65       0.00       0.00      0.000
12:26pm            99          3          5         46         54       73.0       77.9      29.66       77.9        244       4492       1536       1.72       0.00       0.00      0.000
12:27pm           185          2          8         46         53       73.0       77.8      29.66       77.8        245       4621       1530       1.59       0.00       0.00      0.000
12:28pm            89          3          8         46         54       73.0       77.9      29.66       77.9        245       4492       1537       1.66       0.00       0.00      0.000
12:29pm            89          3          8         46         54       73.0       77.9      29.66       77.9        245       4492       1537       1.63       0.00       0.00      0.000
12:30pm            89          3          8         46         53       73.0       77.9      29.66       77.9        246       4623       1538       1.61       0.00       0.00      0.000
12:31pm            89          5          5         46         53       73.0       77.9      29.65       77.9        247       4623       1539       1.58       0.00       0.00      0.000
12:32pm            89          2          5         46         55       73.0       77.9      29.65       77.9        248       4363       1540       1.55       0.00       0.00      0.000
12:33pm            90          3          5         46         54       73.0       78.0      29.65       78.0        249       4493       1547       1.63       0.00       0.00      0.000
12:34pm            90          2          5         46         54       73.0       78.1      29.65       78.1        249       4495       1554       1.70       0.00       0.00      0.000
12:35pm            91          3          5         46         53       73.0       78.2      29.65       78.2        250       4628       1561       1.77       0.00       0.00      0.000
12:36pm            91          2          3         46         53       73.0       78.2      29.65       78.2        250       4628       1562       1.74       0.00       0.00      0.000
12:37pm            91          1          3         46         56       73.0       78.2      29.65       78.2        250       4241       1562       1.71       0.00       0.00      0.000
12:38pm            91          1          3         48         57       73.0       78.4      29.65       78.4        251       4119       1576       1.88       0.00       0.00      0.000
12:39pm            93          2          5         46         56       73.0       78.5      29.65       78.5        250       4246       1581       1.95       0.00       0.00      0.000
12:40pm           169          4          6         46         53       73.0       78.7      29.65       78.7        250       4638       1594       2.12       0.00       0.00      0.000
12:41pm           152          6          7         46         51       73.0       78.6      29.65       78.6        250       4905       1587       1.98       0.00       0.00      0.000
12:42pm           150          1          7         46         52       73.0       78.4      29.65       78.4        251       4766       1576       1.75       0.00       0.00      0.000
12:43pm           178          2          7         46         52       73.0       78.3      29.65       78.3        252       4764       1571       1.62       0.00       0.00      0.000
12:44pm           222          2          7         46         53       73.0       78.3      29.65       78.3        252       4630       1571       1.60       0.00       0.00      0.000
12:45pm           197          3          7         46         53       72.8       78.3      29.65       78.3        251       4630       1570       1.57       0.00       0.00      0.000
12:46pm           144          6          6         46         54       72.8       78.2      29.65       78.2        251       4497       1563       1.45       0.00       0.00      0.000
12:47pm           102          1          6         46         53       72.8       78.2      29.65       78.2        251       4628       1563       1.42       0.00       0.00      0.000
12:48pm           220          6          7         46         53       72.8       78.2      29.65       78.2        251       4628       1563       1.40       0.00       0.00      0.000
12:49pm           212          1          7         46         54       72.8       78.2      29.65       78.2        252       4497       1564       1.38       0.00       0.00      0.000
12:50pm           156          5          9         46         54       72.8       78.2      29.65       78.2        252       4497       1564       1.35       0.00       0.00      0.000
12:51pm           183          4          8         46         52       72.8       78.1      29.65       78.1        254       4760       1560       1.23       0.00       0.00      0.000
12:52pm           147          3          8         46         52       72.8       78.0      29.65       78.0        254       4758       1554       1.11       0.00       0.00      0.000
12:53pm           184          2          8         46         53       72.8       77.9      29.65       77.9        254       4623       1548       1.00       0.00       0.00      0.000
12:54pm           168          2          8         46         54       72.6       77.9      29.65       77.9        254       4492       1548       0.98       0.00       0.00      0.000
12:55pm            98          3          8         46         54       72.6       77.9      29.65       77.9        254       4492       1548       0.96       0.00       0.00      0.000
12:56pm            98          2          3         46         55       72.6       78.0      29.65       78.0        253       4364       1553       1.05       0.00       0.00      0.000
12:57pm           114          1          4         46         54       72.6       78.1      29.65       78.1        253       4495       1559       1.13       0.00       0.00      0.000
12:58pm           187          1          4         46         55       72.6       78.2      29.65       78.2        253       4368       1566       1.21       0.00       0.00      0.000
12:59pm           197          2          5         46         54       72.6       78.4      29.65       78.4        253       4501       1578       1.39       0.00       0.00      0.000
1:00pm            150          2          5         46         53       72.6       78.4      29.65       78.4        255       4632       1580       1.37       0.00       0.00      0.000
1:01pm            158          3          3         46         53       72.6       78.5      29.64       78.5        256       4634       1588       1.44       0.00       0.00      0.000
1:02pm             99          0          3         46         53       72.6       78.5      29.65       78.5        255       4634       1587       1.42       0.00       0.00      0.000
1:03pm             99          2          3         46         54       72.6       78.7      29.65       78.7        255       4506       1599       1.59       0.00       0.00      0.000
1:04pm             99          2          3         46         54       72.6       78.8      29.65       78.8        255       4508       1605       1.67       0.00       0.00      0.000
1:05pm             99          2          3         46         54       72.6       78.9      29.65       78.9        253       4510       1610       1.74       0.00       0.00      0.000
1:06pm            320          3          3         46         54       72.6       79.1      29.65       79.1        253       4514       1622       1.91       0.00       0.00      0.000
1:07pm            191          3          5         46         52       72.6       79.1      29.65       79.1        254       4779       1623       1.87       0.00       0.00      0.000
1:08pm            179          4          5         46         55       72.6       79.1      29.65       79.1        255       4384       1624       1.85       0.00       0.00      0.000
1:09pm            161          3          5         46         52       72.8       78.9      29.64       78.9        256       4775       1613       1.62       0.00       0.00      0.000
1:10pm            265          3          6         46         53       72.8       78.9      29.64       78.9        257       4642       1614       1.59       0.00       0.00      0.000
1:11pm            150          4          4         46         52       72.8       78.8      29.64       78.8        257       4773       1608       1.46       0.00       0.00      0.000
1:12pm            150          0          4         46         53       72.8       78.7      29.64       78.7        257       4638       1601       1.34       0.00       0.00      0.000
1:13pm            178          5          7         46         53       72.8       78.7      29.64       78.7        256       4638       1600       1.32       0.00       0.00      0.000
1:14pm            197          5          7         46         54       72.8       78.6      29.65       78.6        255       4504       1593       1.20       0.00       0.00      0.000
1:15pm            137          4          7         46         52       72.8       78.5      29.64       78.5        257       4768       1589       1.08       0.00       0.00      0.000
1:16pm            138          1          4         46         52       72.8       78.4      29.64       78.4        257       4766       1583       0.96       0.00       0.00      0.000
1:17pm             95          2          4         46         53       72.6       78.4      29.64       78.4        256       4632       1582       0.95       0.00       0.00      0.000
1:18pm            159          3          5         46         53       72.6       78.5      29.64       78.5        256       4634       1588       1.03       0.00       0.00      0.000
1:19pm            197          2          5         46         53       72.6       78.5      29.64       78.5        256       4634       1588       1.01       0.00       0.00      0.000
1:20pm            227          6          8         46         53       72.6       78.5      29.64       78.5        258       4634       1590       1.00       0.00       0.00      0.000
1:21pm            126          3          6         46         53       72.6       78.5      29.64       78.5        256       4634       1588       0.98       0.00       0.00      0.000
1:22pm            167          3          6         46         52       72.6       78.5      29.64       78.5        256       4768       1588       0.97       0.00       0.00      0.000
1:23pm            202          1          6         46         52       72.6       78.6      29.64       78.6        256       4769       1594       1.05       0.00       0.00      0.000
1:24pm            187          1          6         46         53       72.6       78.6      29.65       78.6        255       4636       1593       1.03       0.00       0.00      0.000
1:25pm            155          5          7         46         54       72.6       78.7      29.65       78.7        255       4506       1599       1.11       0.00       0.00      0.000
1:26pm            141          0          5         46         52       72.6       78.7      29.65       78.7        255       4771       1599       1.10       0.00       0.00      0.000
1:27pm            226          3          5         46         52       72.6       78.8      29.65       78.8        254       4773       1604       1.18       0.00       0.00      0.000
1:28pm             81          1          5         46         49       72.4       78.8      29.64       78.8        256       5188       1607       1.16       0.00       0.00      0.000
1:29pm            230          3          5         46         50       72.4       78.8      29.64       78.8        257       5048       1608       1.14       0.00       0.00      0.000
1:30pm            221          0          5         46         50       72.4       78.9      29.64       78.9        256       5050       1613       1.22       0.00       0.00      0.000
1:31pm            221          0          2         46         52       72.4       79.0      29.64       79.0        256       4777       1619       1.30       0.00       0.00      0.000
1:32pm            281          2          2         46         52       72.4       79.1      29.64       79.1        257       4779       1627       1.38       0.00       0.00      0.000
1:33pm            289          1          4         46         51       72.4       79.1      29.64       79.1        257       4915       1627       1.35       0.00       0.00      0.000
1:34pm            222          4          4         46         48       72.4       79.1      29.64       79.1        257       5338       1627       1.33       0.00       0.00      0.000
1:35pm            215          4          4         46         49       72.4       79.2      29.64       79.2        257       5197       1633       1.41       0.00       0.00      0.000
1:36pm            300          1          7         46         47       72.4       79.2      29.64       79.2        257       5487       1633       1.38       0.00       0.00      0.000
1:37pm            300          1          7         46         49       72.3       79.2      29.64       79.2        257       5197       1633       1.36       0.00       0.00      0.000
1:38pm            237          3          7         46         49       72.3       79.2      29.64       79.2        257       5197       1633       1.34       0.00       0.00      0.000
1:39pm            293          2          7         46         48       72.3       79.1      29.64       79.1        257       5338       1627       1.22       0.00       0.00      0.000
1:40pm            220          2          7         46         50       72.3       79.1      29.64       79.1        257       5054       1627       1.20       0.00       0.00      0.000
1:41pm            283          1          3         46         50       72.3       79.0      29.64       79.0        258       5052       1621       1.08       0.00       0.00      0.000
1:42pm            223          3          5         46         49       72.3       79.0      29.64       79.0        258       5193       1621       1.06       0.00       0.00      0.000
1:43pm            223          1          5         46         51       72.3       78.9      29.64       78.9        257       4911       1614       0.94       0.00       0.00      0.000
1:44pm            170          3          5         46         50       72.3       78.9      29.64       78.9        258       5050       1615       0.93       0.00       0.00      0.000
1:45pm            147          3          5         46         49       72.3       78.8      29.64       78.8        258       5188       1609       0.81       0.00       0.00      0.000
1:46pm            162          4          4         46         51       72.3       78.7      29.64       78.7        258       4907       1603       0.70       0.00       0.00      0.000
1:47pm            164          1          5         46         51       72.3       78.7      29.64       78.7        258       4907       1603       0.69       0.00       0.00      0.000
1:48pm            227          1          5         46         51       72.3       78.7      29.64       78.7        258       4907       1603       0.68       0.00       0.00      0.000
1:49pm            192          4          5         46         51       72.3       78.7      29.64       78.7        258       4907       1603       0.67       0.00       0.00      0.000
1:50pm            173          2          5         46         52       72.3       78.9      29.64       78.9        258       4775       1615       0.85       0.00       0.00      0.000
1:51pm            154          5          7         46         51       72.3       78.9      29.64       78.9        258       4911       1615       0.84       0.00       0.00      0.000
1:52pm            223          3          7         46         52       72.3       78.8      29.64       78.8        258       4773       1609       0.73       0.00       0.00      0.000
1:53pm            196          3          7         46         51       72.3       78.8      29.64       78.8        258       4909       1609       0.72       0.00       0.00      0.000
1:54pm            196          2          7         46         53       72.3       78.8      29.64       78.8        258       4640       1609       0.70       0.00       0.00      0.000
1:55pm            222          2          7         46         51       72.3       78.7      29.64       78.7        258       4907       1603       0.59       0.00       0.00      0.000
1:56pm            181          3          4         46         53       72.3       78.7      29.64       78.7        259       4638       1604       0.58       0.00       0.00      0.000
1:57pm            154          7          7         46         51       72.3       78.8      29.64       78.8        259       4909       1610       0.67       0.00       0.00      0.000
1:58pm            176          2          7         46         52       72.3       78.8      29.64       78.8        259       4773       1610       0.66       0.00       0.00      0.000
1:59pm            176          2          7         46         53       72.3       78.8      29.64       78.8        259       4640       1610       0.65       0.00       0.00      0.000
2:00pm            176          0          7         46         51       72.3       78.9      29.64       78.9        259       4911       1616       0.74       0.00       0.00      0.000
2:01pm            175          2          3         46         54       72.3       79.0      29.64       79.0        261       4512       1625       0.83       0.00       0.00      0.000
2:02pm            224          2          3         46         51       72.3       79.0      29.64       79.0        260       4913       1624       0.81       0.00       0.00      0.000
2:03pm            214          4          4         46         51       72.3       79.1      29.64       79.1        260       4915       1630       0.90       0.00       0.00      0.000
2:04pm            177          4          8         46         51       72.3       79.0      29.64       79.0        261       4913       1626       0.78       0.00       0.00      0.000
2:05pm            191          1          8         46         53       72.3       79.0      29.64       79.0        261       4643       1626       0.77       0.00       0.00      0.000
2:06pm            300          2          2         46         54       72.3       79.0      29.64       79.0        261       4512       1626       0.76       0.00       0.00      0.000
2:07pm            300          0          2         46         52       72.3       79.0      29.64       79.0        262       4777       1627       0.74       0.00       0.00      0.000
2:08pm            194          4          4         46         54       72.3       79.0      29.64       79.0        261       4512       1626       0.73       0.00       0.00      0.000
2:09pm            217          3          4         46         51       72.3       79.0      29.64       79.0        261       4913       1626       0.72       0.00       0.00      0.000
2:10pm            121          1          4         46         51       72.3       79.0      29.64       79.0        262       4913       1627       0.71       0.00       0.00      0.000
2:11pm            206          1          3         46         50       72.1       78.9      29.64       78.9        263       5050       1622       0.60       0.00       0.00      0.000
2:12pm            197          1          3         46         52       72.1       78.9      29.64       78.9        264       4775       1623       0.59       0.00       0.00      0.000
2:13pm            197          0          3         46         51       72.1       78.9      29.64       78.9        264       4911       1623       0.58       0.00       0.00      0.000
2:14pm            189          2          3         46         52       72.1       78.9      29.64       78.9        264       4775       1623       0.57       0.00       0.00      0.000
2:15pm            210          2          3         46         51       72.1       78.9      29.64       78.9        264       4911       1623       0.56       0.00       0.00      0.000
2:16pm            228          1          6         46         50       72.1       78.9      29.63       78.9        267       5050       1626       0.55       0.00       0.00      0.000
2:17pm            229          0          6         46         53       72.1       78.8      29.63       78.8        267       4640       1620       0.44       0.00       0.00      0.000
2:18pm            230          2          6         46         54       72.1       78.8      29.63       78.8        268       4508       1621       0.43       0.00       0.00      0.000
2:19pm            199          1          6         46         54       72.1       78.8      29.63       78.8        269       4508       1622       0.43       0.00       0.00      0.000
2:20pm            257          2          6         46         55       72.1       78.8      29.63       78.8        269       4379       1622       0.42       0.00       0.00      0.000
2:21pm            257          1          3         46         52       72.1       78.8      29.63       78.8        268       4773       1621       0.41       0.00       0.00      0.000
2:22pm            211          3          4         46         52       72.1       78.7      29.63       78.7        268       4771       1615       0.30       0.00       0.00      0.000
2:23pm            153          2          7         46         51       72.1       78.7      29.63       78.7        267       4907       1614       0.30       0.00       0.00      0.000
2:24pm            158          1          7         46         53       72.1       78.6      29.63       78.6        267       4636       1607       0.20       0.00       0.00      0.000
2:25pm            158          1          7         46         53       72.1       78.5      29.63       78.5        267       4634       1601       0.09       0.00       0.00      0.000
2:26pm            165          5          5         46         54       72.1       78.5      29.63       78.5        267       4503       1601       0.09       0.00       0.00      0.000
2:27pm            166          3          5         46         54       72.1       78.5      29.63       78.5        269       4503       1603       0.09       0.00       0.00      0.000
2:28pm            148          1          5         46         52       72.1       78.5      29.63       78.5        268       4768       1602       0.09       0.00       0.00      0.000
2:29pm            150          1          5         46         52       72.1       78.5      29.63       78.5        269       4768       1603       0.09       0.00       0.00      0.000
2:30pm            243          0          5         46         52       72.1       78.5      29.63       78.5        269       4768       1603       0.09       0.00       0.00      0.000
2:31pm            147          2          3         46         54       72.1       78.5      29.63       78.5        268       4503       1602       0.08       0.00       0.00      0.000
2:32pm            205          1          4         46         52       72.1       78.4      29.63       78.4        270       4766       1598      -0.02       0.00       0.00      0.000
2:33pm            195          3          7         46         52       72.1       78.4      29.63       78.4        270       4766       1598      -0.02       0.00       0.00      0.000
2:34pm            260          1          7         46         54       72.1       78.3      29.63       78.3        270       4499       1592      -0.11       0.00       0.00      0.000
2:35pm            220          3          7         46         52       72.1       78.2      29.63       78.2        271       4762       1587      -0.21       0.00       0.00      0.000
2:36pm            300          1          3         46         51       72.1       78.1      29.63       78.1        270       4895       1579      -0.31       0.00       0.00      0.000
2:37pm            221          3          3         46         53       72.1       78.1      29.63       78.1        271       4626       1581      -0.30       0.00       0.00      0.000
2:38pm            140          2          3         46         53       72.1       78.0      29.63       78.0        271       4625       1574      -0.40       0.00       0.00      0.000
2:39pm            202          2          4         46         52       72.1       78.0      29.63       78.0        268       4758       1571      -0.39       0.00       0.00      0.000
2:40pm            145          3          6         46         53       72.1       77.9      29.63       77.9        268       4623       1565      -0.48       0.00       0.00      0.000
2:41pm            218          3          4         46         52       72.1       77.8      29.63       77.8        271       4754       1562      -0.57       0.00       0.00      0.000
2:42pm            187          2          4         46         52       72.1       77.8      29.63       77.8        270       4754       1561      -0.56       0.00       0.00      0.000
2:43pm            166          5          5         46         53       72.1       77.8      29.63       77.8        269       4621       1559      -0.55       0.00       0.00      0.000
2:44pm            233          5          5         46         53       72.1       77.8      29.63       77.8        268       4621       1558      -0.55       0.00       0.00      0.000
2:45pm            231          1          5         46         53       72.1       77.7      29.63       77.7        268       4619       1552      -0.64       0.00       0.00      0.000
2:46pm            232          1          2         46         54       72.1       77.9      29.63       77.9        266       4492       1562      -0.43       0.00       0.00      0.000
2:47pm            200          6          6         46         53       72.1       77.9      29.63       77.9        267       4623       1564      -0.42       0.00       0.00      0.000
2:48pm            207          3          6         46         53       72.1       77.9      29.63       77.9        268       4623       1565      -0.41       0.00       0.00      0.000
2:49pm            225          1          6         46         56       71.9       77.9      29.63       77.9        268       4236       1565      -0.41       0.00       0.00      0.000
2:50pm            196          0          6         46         52       71.9       77.9      29.63       77.9        270       4756       1567      -0.40       0.00       0.00      0.000
2:51pm            173          2          3         46         51       71.9       77.9      29.63       77.9        269       4891       1566      -0.39       0.00       0.00      0.000
2:52pm            120          0          3         46         53       71.9       77.9      29.63       77.9        271       4623       1568      -0.39       0.00       0.00      0.000
2:53pm            139          3          6         46         52       71.9       77.9      29.63       77.9        270       4756       1567      -0.38       0.00       0.00      0.000
2:54pm            172          3          6         46         52       71.9       77.9      29.63       77.9        270       4756       1567      -0.37       0.00       0.00      0.000
2:55pm            216          2          6         48         51       71.9       77.8      29.63       77.8        271       4889       1562      -0.47       0.00       0.00      0.000
2:56pm            316          2          5         46         53       71.9       77.8      29.63       77.8        271       4621       1562      -0.46       0.00       0.00      0.000
2:57pm            254          3          5         46         51       71.9       77.8      29.63       77.8        271       4889       1562      -0.45       0.00       0.00      0.000
2:58pm            242          0          5         46         51       71.9       77.8      29.63       77.8        272       4889       1563      -0.44       0.00       0.00      0.000
2:59pm            200          1          5         46         52       71.9       77.8      29.63       77.8        272       4754       1563      -0.44       0.00       0.00      0.000
3:00pm            200          2          5         46         51       71.9       77.9      29.63       77.9        272       4891       1569      -0.33       0.00       0.00      0.000
3:01pm            193          0          3         46         52       71.9       78.0      29.63       78.0        272       4758       1575      -0.23       0.00       0.00      0.000
3:02pm            203          4          5         46         54       71.9       78.0      29.63       78.0        272       4493       1575      -0.22       0.00       0.00      0.000
3:03pm            152          5          5         46         51       71.9       78.1      29.63       78.1        272       4895       1582      -0.12       0.00       0.00      0.000
3:04pm            163          0          6         46         52       71.9       78.0      29.63       78.0        272       4758       1575      -0.22       0.00       0.00      0.000
3:05pm            138          3          6         46         53       71.9       78.1      29.63       78.1        272       4626       1582      -0.11       0.00       0.00      0.000
3:06pm            156          2          3         46         53       71.9       78.2      29.63       78.2        272       4628       1588      -0.01       0.00       0.00      0.000
3:07pm            189          4          5         46         52       71.9       78.2      29.63       78.2        272       4762       1589      -0.01       0.00       0.00      0.000
3:08pm            170          1          5         46         53       71.9       78.2      29.63       78.2        272       4628       1589      -0.01       0.00       0.00      0.000
3:09pm            170          1          5         46         53       71.9       78.3      29.63       78.3        272       4630       1595       0.09       0.00       0.00      0.000
3:10pm            170          1          5         46         53       71.9       78.4      29.63       78.4        272       4632       1602       0.18       0.00       0.00      0.000
3:11pm            169          5          5         46         53       71.9       78.6      29.63       78.6        273       4636       1615       0.38       0.00       0.00      0.000
3:12pm            322          1          5         46         52       71.9       78.7      29.63       78.7        273       4771       1622       0.47       0.00       0.00      0.000
3:13pm            187          2          6         46         52       71.9       78.7      29.63       78.7        273       4771       1622       0.46       0.00       0.00      0.000
3:14pm            221          1          6         46         53       71.9       78.8      29.63       78.8        273       4640       1628       0.55       0.00       0.00      0.000
3:15pm            224          4          6         46         54       71.9       78.8      29.63       78.8        273       4508       1628       0.55       0.00       0.00      0.000
3:16pm            254          4          5         46         51       72.1       78.8      29.63       78.8        273       4909       1628       0.54       0.00       0.00      0.000
3:17pm            232          2          5         46         51       72.1       78.7      29.63       78.7        273       4907       1622       0.43       0.00       0.00      0.000
3:18pm            126          2          5         46         51       72.1       78.7      29.63       78.7        273       4907       1622       0.42       0.00       0.00      0.000
3:19pm            212          3          5         46         51       71.9       78.8      29.63       78.8        273       4909       1628       0.51       0.00       0.00      0.000
3:20pm            217          1          5         46         52       72.1       78.9      29.63       78.9        273       4775       1634       0.60       0.00       0.00      0.000
3:21pm            178          4          4         46         50       71.9       79.0      29.62       79.0        274       5052       1642       0.69       0.00       0.00      0.000
3:22pm            162          2          4         46         49       71.9       79.1      29.62       79.1        274       5195       1648       0.78       0.00       0.00      0.000
3:23pm            227          2          5         46         52       71.9       79.2      29.62       79.2        274       4781       1654       0.87       0.00       0.00      0.000
3:24pm            266          3          5         46         50       71.9       79.3      29.62       79.3        275       5058       1661       0.95       0.00       0.00      0.000
3:25pm            180          3          5         46         50       71.9       79.4      29.62       79.4        276       5060       1669       1.04       0.00       0.00      0.000
3:26pm            165          1          3         46         50       71.9       79.5      29.62       79.5        276       5062       1675       1.12       0.00       0.00      0.000
3:27pm            318          0          3         46         50       71.9       79.6      29.62       79.6        276       5064       1681       1.20       0.00       0.00      0.000
3:28pm            318          1          3         46         51       71.9       79.7      29.62       79.7        276       4927       1688       1.28       0.00       0.00      0.000
3:29pm              4          2          3         46         51       71.9       79.9      29.62       79.9        277       4931       1701       1.46       0.00       0.00      0.000
3:30pm             81          2          3         46         51       71.9       80.0      29.62       80.0        277       4933       1708       1.53       0.00       0.00      0.000
3:31pm             81          1          4         46         50       71.9       80.2      29.62       80.2        277       5076       1720       1.70       0.00       0.00      0.000
3:32pm             81          3          4         46         51       71.8       80.2      29.62       80.2        276       4937       1719       1.67       0.00       0.00      0.000
3:33pm             81          2          4         46         50       71.8       80.3      29.62       80.3        279       5079       1729       1.75       0.00       0.00      0.000
3:34pm             81          2          4         46         52       71.8       80.5      29.62       80.5        277       4806       1739       1.92       0.00       0.00      0.000
3:35pm             85          2          5         46         52       71.8       80.5      29.62       80.5        277       4806       1739       1.88       0.00       0.00      0.000
3:36pm             89          4          4         46         51       71.8       80.7      29.62       80.7        277       4947       1751       2.05       0.00       0.00      0.000
3:37pm             91          3          4         46         50       71.8       80.7      29.62       80.7        277       5087       1751       2.02       0.00       0.00      0.000
3:38pm            173          4          6         46         49       71.8       80.7      29.62       80.7        277       5229       1751       1.98       0.00       0.00      0.000
3:39pm            181          2          8         46         48       71.8       80.5      29.62       80.5        276       5369       1738       1.75       0.00       0.00      0.000
3:40pm            153          4          8         46         48       71.8       80.3      29.62       80.3        277       5364       1726       1.53       0.00       0.00      0.000
3:41pm            139          3          6         46         48       71.8       80.2      29.62       80.2        275       5362       1718       1.40       0.00       0.00      0.000
3:42pm            126          6          6         46         48       71.8       80.1      29.62       80.1        275       5360       1712       1.28       0.00       0.00      0.000
3:43pm            168          4          6         46         49       71.8       80.0      29.62       80.0        275       5214       1705       1.16       0.00       0.00      0.000
3:44pm            164          1          6         46         49       71.8       79.8      29.62       79.8        277       5210       1695       0.94       0.00       0.00      0.000
3:45pm            164          1          6         46         50       71.9       79.7      29.62       79.7        278       5066       1690       0.83       0.00       0.00      0.000
3:46pm            162          5          5         46         50       71.9       79.8      29.62       79.8        277       5068       1695       0.91       0.00       0.00      0.000
3:47pm            228          4          7         46         51       71.9       79.9      29.62       79.9        277       4931       1701       1.00       0.00       0.00      0.000
3:48pm            250          1          7         46         50       71.9       80.0      29.62       80.0        279       5072       1710       1.08       0.00       0.00      0.000
3:49pm            250          2          7         46         53       71.9       80.0      29.62       80.0        279       4662       1710       1.06       0.00       0.00      0.000
3:50pm            145          1          7         46         48       71.9       80.0      29.62       80.0        280       5358       1711       1.04       0.00       0.00      0.000
3:51pm            149          1          2         46         51       71.9       80.0      29.62       80.0        279       4933       1710       1.02       0.00       0.00      0.000
3:52pm            149          0          2         46         53       71.9       80.0      29.62       80.0        279       4662       1710       1.01       0.00       0.00      0.000
3:53pm            149          1          2         46         51       71.9       80.0      29.62       80.0        277       4933       1708       0.99       0.00       0.00      0.000
3:54pm            140          1          3         46         53       71.9       80.0      29.62       80.0        277       4662       1708       0.98       0.00       0.00      0.000
3:55pm            252          2          4         46         50       71.8       80.1      29.62       80.1        276       5074       1713       1.06       0.00       0.00      0.000
3:56pm            166          3          4         46         51       71.8       80.1      29.62       80.1        277       4935       1714       1.04       0.00       0.00      0.000
3:57pm            198          3          6         46         48       71.8       80.0      29.62       80.0        278       5358       1709       0.92       0.00       0.00      0.000
3:58pm            153          0          6         46         49       71.8       80.0      29.62       80.0        279       5214       1710       0.91       0.00       0.00      0.000
3:59pm            153          3          6         46         51       71.8       80.0      29.62       80.0        278       4933       1709       0.89       0.00       0.00      0.000
4:00pm            175          1          6         46         48       71.8       79.9      29.62       79.9        278       5356       1702       0.78       0.00       0.00      0.000
4:01pm            175          0          2         46         48       71.8       79.9      29.62       79.9        280       5356       1705       0.77       0.00       0.00      0.000
4:02pm            175          1          2         46         48       71.8       79.9      29.62       79.9        281       5356       1706       0.76       0.00       0.00      0.000
4:03pm            175          2          3         46         49       71.8       80.0      29.62       80.0        280       5214       1711       0.84       0.00       0.00      0.000
4:04pm            208          2          3         46         50       71.8       80.0      29.62       80.0        280       5072       1711       0.83       0.00       0.00      0.000
4:05pm            194          0          3         46         49       71.6       80.1      29.62       80.1        281       5216       1718       0.91       0.00       0.00      0.000
4:06pm            132          7          7         46         48       71.6       80.2      29.62       80.2        282       5362       1726       1.00       0.00       0.00      0.000
4:07pm            164          6          8         46         48       71.6       80.1      29.62       80.1        283       5360       1721       0.88       0.00       0.00      0.000
4:08pm            161          2          8         46         48       71.6       80.1      29.62       80.1        283       5360       1721       0.87       0.00       0.00      0.000
4:09pm            160          4          8         46         50       71.6       80.0      29.62       80.0        283       5072       1714       0.75       0.00       0.00      0.000
4:10pm            212          5          8         46         48       71.6       80.0      29.62       80.0        282       5358       1713       0.74       0.00       0.00      0.000
4:11pm            226          5          6         46         47       71.6       80.0      29.62       80.0        283       5505       1714       0.73       0.00       0.00      0.000
4:12pm            143          4          9         46         48       71.6       79.9      29.62       79.9        283       5356       1708       0.62       0.00       0.00      0.000
4:13pm            144          4          9         46         47       71.6       79.9      29.62       79.9        283       5502       1708       0.61       0.00       0.00      0.000
4:14pm            139          3          9         46         47       71.6       79.9      29.61       79.9        284       5502       1710       0.60       0.00       0.00      0.000
4:15pm            177          5          9         46         48       71.6       79.9      29.61       79.9        283       5356       1709       0.59       0.00       0.00      0.000
4:16pm            121          4          7         46         48       71.6       79.9      29.61       79.9        284       5356       1710       0.58       0.00       0.00      0.000
4:17pm            163          8          8         46         48       71.6       79.9      29.61       79.9        285       5356       1711       0.57       0.00       0.00      0.000
4:18pm            154          5          8         46         48       71.6       79.8      29.61       79.8        285       5354       1705       0.46       0.00       0.00      0.000
4:19pm            150          4          8         46         48       71.6       79.8      29.61       79.8        286       5354       1706       0.46       0.00       0.00      0.000
4:20pm            210          2          8         46         48       71.6       79.8      29.61       79.8        286       5354       1706       0.45       0.00       0.00      0.000
4:21pm            170          6          6         46         47       71.6       79.8      29.61       79.8        286       5500       1706       0.44       0.00       0.00      0.000
4:22pm            160          4          7         46         47       71.6       79.7      29.61       79.7        286       5498       1700       0.33       0.00       0.00      0.000
4:23pm            224          3          7         46         47       71.6       79.6      29.61       79.6        286       5496       1694       0.23       0.00       0.00      0.000
4:24pm            204          0          7         46         47       71.6       79.7      29.61       79.7        287       5498       1701       0.32       0.00       0.00      0.000
4:25pm            204          0          7         46         47       71.6       79.8      29.61       79.8        287       5500       1707       0.42       0.00       0.00      0.000
4:26pm            159          2          4         46         48       71.6       79.9      29.61       79.9        287       5356       1714       0.51       0.00       0.00      0.000
4:27pm             31          3          4         46         48       71.6       80.0      29.61       80.0        287       5358       1720       0.60       0.00       0.00      0.000
4:28pm            135          2          4         46         48       71.6       80.2      29.61       80.2        287       5362       1732       0.79       0.00       0.00      0.000
4:29pm            135          3          4         46         48       71.6       80.3      29.61       80.3        288       5364       1740       0.88       0.00       0.00      0.000
4:30pm            107          2          4         46         48       71.6       80.3      29.61       80.3        288       5364       1740       0.86       0.00       0.00      0.000
4:31pm            203          2          4         46         49       71.6       80.5      29.61       80.5        288       5224       1752       1.05       0.00       0.00      0.000
4:32pm            210          2          4         46         49       71.6       80.7      29.61       80.7        289       5229       1766       1.23       0.00       0.00      0.000
4:33pm            286          1          4         46         48       71.6       80.8      29.61       80.8        289       5375       1772       1.31       0.00       0.00      0.000
4:34pm            206          3          4         46         48       71.6       80.9      29.61       80.9        289       5377       1778       1.38       0.00       0.00      0.000
4:35pm            160          3          5         46         49       71.4       80.9      29.61       80.9        289       5233       1778       1.36       0.00       0.00      0.000
4:36pm            189          2          4         46         48       71.4       80.9      29.61       80.9        289       5377       1778       1.34       0.00       0.00      0.000
4:37pm            189          0          4         46         49       71.4       80.8      29.61       80.8        290       5231       1773       1.22       0.00       0.00      0.000
4:38pm            187          5          5         46         49       71.4       80.8      29.61       80.8        290       5231       1773       1.20       0.00       0.00      0.000
4:39pm            224          2          5         46         49       71.4       80.9      29.61       80.9        290       5233       1779       1.27       0.00       0.00      0.000
4:40pm            127          2          5         46         48       71.4       80.9      29.61       80.9        291       5377       1781       1.25       0.00       0.00      0.000
4:41pm            151          0          3         46         48       71.4       81.0      29.61       81.0        290       5380       1786       1.33       0.00       0.00      0.000
4:42pm            152          3          3         46         47       71.4       81.1      29.61       81.1        292       5529       1794       1.41       0.00       0.00      0.000
4:43pm            251          3          5         46         48       71.4       81.1      29.61       81.1        289       5382       1791       1.39       0.00       0.00      0.000
4:44pm            255          4          8         46         45       71.4       81.1      29.61       81.1        289       5832       1791       1.36       0.00       0.00      0.000
4:45pm            147          1          8         46         45       71.4       81.1      29.61       81.1        290       5832       1792       1.34       0.00       0.00      0.000
4:46pm            208          4          7         46         46       71.4       81.0      29.61       81.0        289       5677       1785       1.22       0.00       0.00      0.000
4:47pm            265          1          7         46         46       71.4       80.9      29.61       80.9        291       5675       1781       1.10       0.00       0.00      0.000
4:48pm            178          3          7         46         46       71.4       80.9      29.60       80.9        293       5675       1783       1.08       0.00       0.00      0.000
4:49pm            175          4          7         46         46       71.4       80.8      29.61       80.8        292       5672       1775       0.96       0.00       0.00      0.000
4:50pm            160          1          7         46         46       71.4       80.7      29.60       80.7        294       5670       1771       0.85       0.00       0.00      0.000
4:51pm            160          1          3         46         47       71.4       80.7      29.60       80.7        295       5520       1774       0.83       0.00       0.00      0.000
4:52pm            254          3          4         46         47       71.4       80.8      29.60       80.8        296       5522       1781       0.92       0.00       0.00      0.000
4:53pm            256          3          4         46         46       71.4       80.8      29.60       80.8        298       5672       1783       0.90       0.00       0.00      0.000
4:54pm            177          3          4         46         48       71.4       80.8      29.60       80.8        298       5375       1783       0.89       0.00       0.00      0.000
4:55pm            164          1          4         46         47       71.4       80.7      29.60       80.7        299       5520       1778       0.78       0.00       0.00      0.000
4:56pm            168          2          3         46         47       71.4       80.8      29.60       80.8        299       5522       1784       0.86       0.00       0.00      0.000
4:57pm            194          6          8         46         47       71.4       80.8      29.60       80.8        300       5522       1786       0.85       0.00       0.00      0.000
4:58pm            180          3          8         46         48       71.4       80.8      29.60       80.8        298       5375       1783       0.83       0.00       0.00      0.000
4:59pm            172          4          9         46         46       71.4       80.7      29.60       80.7        297       5670       1776       0.72       0.00       0.00      0.000
5:00pm            160          6          9         46         46       71.4       80.6      29.60       80.6        299       5668       1772       0.61       0.00       0.00      0.000
5:01pm            164          5          6         46         47       71.4       80.4      29.60       80.4        300       5514       1761       0.40       0.00       0.00      0.000
5:02pm             86          5          6         46         47       71.4       80.3      29.60       80.3        300       5511       1754       0.30       0.00       0.00      0.000
5:03pm            193          6         10         46         47       71.4       80.3      29.60       80.3        300       5511       1754       0.29       0.00       0.00      0.000
5:04pm            170          7         10         46         47       71.4       80.3      29.60       80.3        300       5511       1754       0.29       0.00       0.00      0.000
5:05pm            212          7         10         46         47       71.4       80.3      29.60       80.3        301       5511       1755       0.28       0.00       0.00      0.000
5:06pm            174          2          7         46         48       71.4       80.2      29.60       80.2        301       5362       1749       0.18       0.00       0.00      0.000
5:07pm            177          4          7         46         48       71.2       80.3      29.60       80.3        301       5364       1755       0.27       0.00       0.00      0.000
5:08pm            189          6          9         46         48       71.2       80.3      29.60       80.3        301       5364       1755       0.27       0.00       0.00      0.000
5:09pm            209          2          9         46         48       71.2       80.3      29.60       80.3        301       5364       1755       0.26       0.00       0.00      0.000
5:10pm            156          6          9         46         49       71.2       80.3      29.60       80.3        302       5220       1757       0.26       0.00       0.00      0.000
5:11pm            134          2          6         46         48       71.2       80.4      29.60       80.4        302       5367       1763       0.35       0.00       0.00      0.000
5:12pm            149          7          7         46         49       71.2       80.5      29.60       80.5        302       5224       1769       0.45       0.00       0.00      0.000
5:13pm            182          7          8         46         48       71.2       80.5      29.60       80.5        302       5369       1769       0.44       0.00       0.00      0.000
5:14pm            213          3          8         46         48       71.2       80.5      29.59       80.5        303       5369       1770       0.43       0.00       0.00      0.000
5:15pm            192          4         11         46         49       71.2       80.5      29.59       80.5        303       5224       1770       0.43       0.00       0.00      0.000
5:16pm            156          7          8         46         48       71.2       80.3      29.59       80.3        303       5364       1758       0.22       0.00       0.00      0.000
5:17pm            200          6          8         46         49       71.2       80.3      29.59       80.3        303       5220       1758       0.22       0.00       0.00      0.000
5:18pm            188          4          8         46         49       71.2       80.3      29.59       80.3        303       5220       1758       0.21       0.00       0.00      0.000
5:19pm            199          2          8         46         50       71.2       80.3      29.59       80.3        303       5079       1758       0.21       0.00       0.00      0.000
5:20pm            310          2          8         46         49       71.2       80.3      29.59       80.3        303       5220       1758       0.21       0.00       0.00      0.000
5:21pm            300          1          3         46         50       71.2       80.4      29.59       80.4        304       5081       1765       0.30       0.00       0.00      0.000
5:22pm            195          6          8         46         51       71.2       80.3      29.59       80.3        305       4939       1760       0.20       0.00       0.00      0.000
5:23pm            165          3          8         46         50       71.2       80.3      29.59       80.3        305       5079       1760       0.19       0.00       0.00      0.000
5:24pm            158          2          8         46         51       71.2       80.3      29.59       80.3        304       4939       1759       0.19       0.00       0.00      0.000
5:25pm            142          6          8         46         51       71.2       80.3      29.59       80.3        305       4939       1760       0.19       0.00       0.00      0.000
5:26pm            160          8          8         46         50       71.2       80.3      29.59       80.3        305       5079       1760       0.18       0.00       0.00      0.000
5:27pm            147          7         10         46         51       71.2       80.3      29.59       80.3        303       4939       1758       0.18       0.00       0.00      0.000
5:28pm            234          4         10         46         51       71.2       80.3      29.59       80.3        305       4939       1760       0.18       0.00       0.00      0.000
5:29pm            149          6         10         46         51       71.2       80.2      29.59       80.2        305       4937       1754       0.08       0.00       0.00      0.000
5:30pm            245          5         10         46         51       71.2       80.2      29.59       80.2        306       4937       1756       0.08       0.00       0.00      0.000
5:31pm            244          2          6         46         52       71.2       80.1      29.59       80.1        308       4799       1752      -0.02       0.00       0.00      0.000
5:32pm            175          2          6         46         52       71.2       80.1      29.59       80.1        307       4799       1751      -0.02       0.00       0.00      0.000
5:33pm            171          3          6         46         52       71.2       80.1      29.59       80.1        311       4799       1755      -0.02       0.00       0.00      0.000
5:34pm            157          4          7         46         52       71.2       80.1      29.59       80.1        310       4799       1754      -0.02       0.00       0.00      0.000
5:35pm             99          3          7         46         52       71.2       80.2      29.59       80.2        311       4801       1762       0.08       0.00       0.00      0.000
5:36pm            187          2          3         46         52       71.2       80.3      29.59       80.3        311       4803       1768       0.17       0.00       0.00      0.000
5:37pm            220          0          3         46         52       71.2       80.3      29.59       80.3        309       4803       1766       0.17       0.00       0.00      0.000
5:38pm            164          5          5         46         52       71.2       80.4      29.59       80.4        309       4805       1772       0.27       0.00       0.00      0.000
5:39pm            226          6          8         46         51       71.2       80.4      29.59       80.4        310       4941       1773       0.26       0.00       0.00      0.000
5:40pm             98          2          8         46         51       71.2       80.3      29.59       80.3        310       4939       1767       0.16       0.00       0.00      0.000
5:41pm            189          4          5         46         51       71.2       80.3      29.59       80.3        309       4939       1766       0.16       0.00       0.00      0.000
5:42pm            254          3          5         46         52       71.2       80.3      29.59       80.3        309       4803       1766       0.15       0.00       0.00      0.000
5:43pm            197          3          5         46         52       71.2       80.2      29.58       80.2        312       4801       1763       0.05       0.00       0.00      0.000
5:44pm            139          5          5         46         52       71.2       80.3      29.58       80.3        313       4803       1770       0.15       0.00       0.00      0.000
5:45pm            213          4          5         46         52       71.2       80.2      29.58       80.2        312       4801       1763       0.05       0.00       0.00      0.000
5:46pm            181          5          7         46         52       71.1       80.3      29.58       80.3        312       4803       1769       0.15       0.00       0.00      0.000
5:47pm            166          4          7         46         52       71.1       80.2      29.59       80.2        311       4801       1762       0.05       0.00       0.00      0.000
5:48pm            100          3          7         46         52       71.1       80.2      29.59       80.2        311       4801       1762       0.04       0.00       0.00      0.000
5:49pm            178          5          7         46         52       71.1       80.2      29.59       80.2        311       4801       1762       0.04       0.00       0.00      0.000
5:50pm            185          3          7         46         52       71.1       80.2      29.59       80.2        310       4801       1760       0.04       0.00       0.00      0.000
5:51pm            151          4          7         46         52       71.1       80.1      29.59       80.1        310       4799       1754      -0.06       0.00       0.00      0.000
5:52pm            214          4          8         46         52       71.1       80.1      29.59       80.1        311       4799       1755      -0.05       0.00       0.00      0.000
5:53pm            131          5          8         46         52       71.1       80.1      29.59       80.1        311       4799       1755      -0.05       0.00       0.00      0.000
5:54pm            125          2          8         46         52       71.1       80.1      29.59       80.1        311       4799       1755      -0.05       0.00       0.00      0.000
5:55pm            163          3          8         46         52       71.1       80.1      29.59       80.1        311       4799       1755      -0.05       0.00       0.00      0.000
5:56pm            210          5          7         46         52       71.1       80.1      29.59       80.1        310       4799       1754      -0.05       0.00       0.00      0.000
5:57pm            173          6          7         46         52       71.2       80.0      29.59       80.0        311       4797       1749      -0.15       0.00       0.00      0.000
5:58pm            135          2          7         46         52       71.2       80.0      29.59       80.0        311       4797       1749      -0.15       0.00       0.00      0.000
5:59pm            202          4          7         46         52       71.2       80.0      29.58       80.0        312       4797       1750      -0.14       0.00       0.00      0.000
6:00pm            181          4          7         46         52       71.2       80.0      29.58       80.0        313       4797       1751      -0.14       0.00       0.00      0.000
6:01pm            179          6          6         46         52       71.2       79.9      29.58       79.9        315       4795       1747      -0.24       0.00       0.00      0.000
6:02pm            123          7          7         46         53       71.2       79.8      29.58       79.8        315       4659       1741      -0.33       0.00       0.00      0.000
6:03pm            187          6          7         46         52       71.2       79.8      29.58       79.8        315       4793       1741      -0.33       0.00       0.00      0.000
6:04pm            208          5          7         46         53       71.2       79.8      29.58       79.8        315       4659       1741      -0.32       0.00       0.00      0.000
6:05pm            181          3          7         46         53       71.2       79.7      29.58       79.7        315       4657       1735      -0.42       0.00       0.00      0.000
6:06pm            110          0          7         46         53       71.2       79.8      29.58       79.8        315       4659       1741      -0.31       0.00       0.00      0.000
6:07pm            168          6          8         46         53       71.2       79.7      29.58       79.7        314       4657       1734      -0.40       0.00       0.00      0.000
6:08pm            168          6          9         46         53       71.2       79.7      29.58       79.7        314       4657       1734      -0.40       0.00       0.00      0.000
6:09pm            196          2          9         46         53       71.2       79.7      29.58       79.7        315       4657       1735      -0.39       0.00       0.00      0.000
6:10pm            195          4          9         46         53       71.2       79.7      29.58       79.7        315       4657       1735      -0.38       0.00       0.00      0.000
6:11pm            153          6          8         46         52       71.2       79.7      29.58       79.7        315       4791       1735      -0.38       0.00       0.00      0.000
6:12pm            213          3          8         46         53       71.2       79.7      29.58       79.7        315       4657       1735      -0.37       0.00       0.00      0.000
6:13pm            343          2          8         46         53       71.2       79.6      29.58       79.6        315       4655       1728      -0.46       0.00       0.00      0.000
6:14pm            348          1          8         46         53       71.2       79.6      29.58       79.6        315       4655       1728      -0.45       0.00       0.00      0.000
6:15pm            348          0          8         46         53       71.2       79.5      29.58       79.5        314       4653       1721      -0.55       0.00       0.00      0.000
6:16pm            197          1          5         46         53       71.2       79.5      29.58       79.5        314       4653       1721      -0.54       0.00       0.00      0.000
6:17pm            215          3          5         46         53       71.2       79.5      29.58       79.5        314       4653       1721      -0.53       0.00       0.00      0.000
6:18pm            216          1          5         46         54       71.2       79.4      29.58       79.4        314       4519       1715      -0.62       0.00       0.00      0.000
6:19pm            216          0          5         46         54       71.2       79.5      29.58       79.5        314       4521       1721      -0.51       0.00       0.00      0.000
6:20pm            175          2          5         46         54       71.2       79.5      29.58       79.5        313       4521       1720      -0.50       0.00       0.00      0.000
6:21pm            187          5          9         46         54       71.2       79.5      29.58       79.5        312       4521       1719      -0.49       0.00       0.00      0.000
6:22pm            181          9          9         46         53       71.2       79.5      29.58       79.5        313       4653       1720      -0.48       0.00       0.00      0.000
6:23pm            145          5          9         46         53       71.1       79.4      29.59       79.4        311       4651       1711      -0.57       0.00       0.00      0.000
6:24pm            214          5          9         46         53       71.1       79.4      29.58       79.4        312       4651       1713      -0.57       0.00       0.00      0.000
6:25pm            143          7          9         46         53       71.1       79.4      29.58       79.4        313       4651       1714      -0.56       0.00       0.00      0.000
6:26pm            204          3          7         46         54       71.1       79.4      29.58       79.4        313       4519       1714      -0.55       0.00       0.00      0.000
6:27pm            168          7          7         46         54       71.1       79.4      29.58       79.4        313       4519       1714      -0.54       0.00       0.00      0.000
6:28pm            174          4          9         46         54       71.1       79.4      29.58       79.4        313       4519       1714      -0.53       0.00       0.00      0.000
6:29pm            188          2          9         46         54       71.1       79.4      29.58       79.4        314       4519       1715      -0.52       0.00       0.00      0.000
6:30pm            179          4          9         46         54       71.1       79.4      29.58       79.4        313       4519       1714      -0.51       0.00       0.00      0.000
6:31pm            143          1          5         46         54       71.1       79.4      29.58       79.4        314       4519       1715      -0.50       0.00       0.00      0.000
6:32pm            100          2          5         46         54       71.1       79.4      29.58       79.4        313       4519       1714      -0.49       0.00       0.00      0.000
6:33pm            170          2          5         46         54       71.1       79.4      29.58       79.4        314       4519       1715      -0.49       0.00       0.00      0.000
6:34pm            209          3          5         46         54       71.1       79.4      29.58       79.4        314       4519       1715      -0.48       0.00       0.00      0.000
6:35pm             89          2          5         46         54       71.1       79.4      29.58       79.4        314       4519       1715      -0.47       0.00       0.00      0.000
6:36pm            206          4          4         46         54       71.2       79.3      29.58       79.3        315       4517       1710      -0.56       0.00       0.00      0.000
6:37pm            154          5          5         46         55       71.2       79.4      29.58       79.4        314       4389       1715      -0.45       0.00       0.00      0.000
6:38pm            166          0          5         46         54       71.2       79.3      29.58       79.3        315       4517       1710      -0.54       0.00       0.00      0.000
6:39pm            166          2          5         46         55       71.2       79.2      29.58       79.2        315       4386       1703      -0.64       0.00       0.00      0.000
6:40pm            166          1          5         46         55       71.2       79.2      29.58       79.2        315       4386       1703      -0.63       0.00       0.00      0.000
6:41pm            166          1          2         46         55       71.2       79.2      29.58       79.2        315       4386       1703      -0.62       0.00       0.00      0.000
6:42pm            166          0          2         46         55       71.2       79.2      29.58       79.2        315       4386       1703      -0.61       0.00       0.00      0.000
6:43pm            226          2          5         46         55       71.2       79.2      29.58       79.2        314       4386       1702      -0.60       0.00       0.00      0.000
6:44pm            166          2          5         46         55       71.2       79.1      29.58       79.1        314       4384       1696      -0.69       0.00       0.00      0.000
6:45pm            235          1          5         46         55       71.2       79.1      29.58       79.1        314       4384       1696      -0.68       0.00       0.00      0.000
6:46pm            157          2          4         46         55       71.2       79.1      29.58       79.1        313       4384       1695      -0.66       0.00       0.00      0.000
6:47pm            208          3          4         46         55       71.2       79.1      29.58       79.1        313       4384       1695      -0.65       0.00       0.00      0.000
6:48pm            204          1          4         46         55       71.2       79.1      29.58       79.1        313       4384       1695      -0.64       0.00       0.00      0.000
6:49pm            230          3          5         46         55       71.2       79.0      29.58       79.0        313       4382       1689      -0.73       0.00       0.00      0.000
6:50pm            213          3          5         46         55       71.2       79.0      29.58       79.0        313       4382       1689      -0.72       0.00       0.00      0.000
6:51pm            214          2          4         46         55       71.4       78.9      29.58       78.9        312       4381       1681      -0.80       0.00       0.00      0.000
6:52pm            290          0          4         46         56       71.4       78.9      29.58       78.9        312       4253       1681      -0.79       0.00       0.00      0.000
6:53pm            216          2          4         46         56       71.4       78.8      29.58       78.8        312       4251       1675      -0.88       0.00       0.00      0.000
6:54pm            207          3          5         46         55       71.4       78.8      29.58       78.8        313       4379       1676      -0.86       0.00       0.00      0.000
6:55pm            206          0          5         46         55       71.2       78.7      29.58       78.7        312       4377       1669      -0.95       0.00       0.00      0.000
6:56pm            207          1          3         46         55       71.2       78.8      29.58       78.8        313       4379       1676      -0.83       0.00       0.00      0.000
6:57pm            158          1          4         46         55       71.2       78.7      29.58       78.7        313       4377       1670      -0.92       0.00       0.00      0.000
6:58pm            166          1          4         46         55       71.2       78.8      29.58       78.8        313       4379       1676      -0.81       0.00       0.00      0.000
6:59pm            166          4          4         46         56       71.2       78.8      29.58       78.8        314       4251       1677      -0.79       0.00       0.00      0.000
7:00pm            155          2          5         46         56       71.2       78.8      29.58       78.8        314       4251       1677      -0.78       0.00       0.00      0.000
7:01pm            155          0          2         46         56       71.2       78.8      29.58       78.8        314       4251       1677      -0.77       0.00       0.00      0.000
7:02pm            113          4          4         46         56       71.2       78.8      29.58       78.8        315       4251       1678      -0.75       0.00       0.00      0.000
7:03pm            174          1          4         46         56       71.2       78.8      29.58       78.8        315       4251       1678      -0.74       0.00       0.00      0.000
7:04pm            260          1          4         46         56       71.2       78.8      29.58       78.8        315       4251       1678      -0.73       0.00       0.00      0.000
7:05pm            260          1          4         46         56       71.2       78.8      29.58       78.8        315       4251       1678      -0.72       0.00       0.00      0.000
7:06pm            180          3          3         46         56       71.2       78.7      29.58       78.7        314       4250       1671      -0.80       0.00       0.00      0.000
7:07pm            180          2          3         46         56       71.2       78.7      29.58       78.7        314       4250       1671      -0.79       0.00       0.00      0.000
7:08pm            203          3          5         46         56       71.2       78.7      29.58       78.7        314       4250       1671      -0.78       0.00       0.00      0.000
7:09pm            203          1          5         46         56       71.2       78.6      29.58       78.6        314       4248       1665      -0.86       0.00       0.00      0.000
7:10pm            203          1          5         46         57       71.2       78.6      29.58       78.6        314       4123       1665      -0.85       0.00       0.00      0.000
7:11pm            203          2          3         46         57       71.2       78.6      29.58       78.6        315       4123       1666      -0.83       0.00       0.00      0.000
7:12pm            264          3          3         46         57       71.2       78.6      29.58       78.6        315       4123       1666      -0.82       0.00       0.00      0.000
7:13pm            259          1          3         46         57       71.2       78.5      29.58       78.5        316       4121       1661      -0.91       0.00       0.00      0.000
7:14pm            259          0          3         46         57       71.2       78.5      29.58       78.5        316       4121       1661      -0.89       0.00       0.00      0.000
7:15pm            175          4          4         46         57       71.2       78.5      29.58       78.5        316       4121       1661      -0.87       0.00       0.00      0.000
7:16pm            175          2          4         46         57       71.2       78.4      29.58       78.4        316       4119       1655      -0.96       0.00       0.00      0.000
7:17pm            196          4          7         46         57       71.2       78.4      29.58       78.4        316       4119       1655      -0.94       0.00       0.00      0.000
7:18pm            179          3          7         46         57       71.2       78.3      29.58       78.3        316       4118       1649      -1.03       0.00       0.00      0.000
7:19pm            152          1          7         46         57       71.2       78.3      29.58       78.3        316       4118       1649      -1.01       0.00       0.00      0.000
7:20pm            177          1          7         46         57       71.2       78.2      29.58       78.2        316       4116       1643      -1.09       0.00       0.00      0.000
7:21pm            177          0          2         46         57       71.2       78.2      29.58       78.2        316       4116       1643      -1.08       0.00       0.00      0.000
7:22pm            177          1          2         46         57       71.4       78.2      29.58       78.2        316       4116       1642      -1.06       0.00       0.00      0.000
7:23pm            177          2          2         46         57       71.4       78.2      29.58       78.2        316       4116       1642      -1.04       0.00       0.00      0.000
7:24pm            177          0          2         46         58       71.4       78.2      29.58       78.2        316       3993       1642      -1.02       0.00       0.00      0.000
7:25pm            177          1          3         46         58       71.4       78.1      29.58       78.1        316       3991       1636      -1.10       0.00       0.00      0.000
7:26pm            177          0          1         46         58       71.4       78.0      29.58       78.0        316       3989       1629      -1.19       0.00       0.00      0.000
7:27pm            189          4          5         46         58       71.4       78.0      29.58       78.0        316       3989       1629      -1.17       0.00       0.00      0.000
7:28pm            179          3          6         46         58       71.4       77.9      29.58       77.9        316       3988       1623      -1.25       0.00       0.00      0.000
7:29pm            157          0          6         46         58       71.4       77.9      29.58       77.9        316       3988       1623      -1.23       0.00       0.00      0.000
7:30pm            157          0          6         46         58       71.4       77.9      29.58       77.9        316       3988       1623      -1.21       0.00       0.00      0.000
7:31pm            157          0          1         46         58       71.4       77.9      29.58       77.9        316       3988       1623      -1.19       0.00       0.00      0.000
7:32pm            157          3          3         46         58       71.4       77.8      29.58       77.8        316       3986       1617      -1.27       0.00       0.00      0.000
7:33pm            193          2          4         46         58       71.4       77.9      29.58       77.9        316       3988       1623      -1.15       0.00       0.00      0.000
7:34pm            150          4          7         46         58       71.4       77.8      29.58       77.8        316       3986       1617      -1.23       0.00       0.00      0.000
7:35pm            161          3          7         46         58       71.4       77.8      29.58       77.8        316       3986       1617      -1.21       0.00       0.00      0.000
7:36pm            191          4          5         46         58       71.4       77.8      29.58       77.8        316       3986       1617      -1.19       0.00       0.00      0.000
7:37pm            241          2          5         46         58       71.4       77.8      29.58       77.8        316       3986       1617      -1.17       0.00       0.00      0.000
7:38pm            237          1          5         46         58       71.6       77.8      29.58       77.8        316       3986       1617      -1.15       0.00       0.00      0.000
7:39pm            237          0          5         46         58       71.6       77.7      29.58       77.7        316       3985       1610      -1.23       0.00       0.00      0.000
7:40pm            237          2          5         46         58       71.6       77.7      29.58       77.7        316       3985       1610      -1.21       0.00       0.00      0.000
7:41pm            157          1          5         48         58       71.6       77.7      29.58       77.7        316       3985       1610      -1.19       0.00       0.00      0.000
7:42pm            157          0          5         46         58       71.6       77.7      29.58       77.7        316       3985       1610      -1.17       0.00       0.00      0.000
7:43pm            158          0          5         46         58       71.6       77.7      29.58       77.7        316       3985       1610      -1.15       0.00       0.00      0.000
7:44pm            199          2          5         46         58       71.6       77.7      29.58       77.7        316       3985       1610      -1.13       0.00       0.00      0.000
7:45pm            199          0          5         46         58       71.6       77.6      29.58       77.6        316       3983       1604      -1.21       0.00       0.00      0.000
7:46pm            199          0          0         46         58       71.6       77.7      29.58       77.7        316       3985       1612      -1.09       0.00       0.00      0.000
7:47pm            199          1          3         46         58       71.6       77.7      29.58       77.7        316       3985       1612      -1.07       0.00       0.00      0.000
7:48pm            212          0          3         46         58       71.6       77.6      29.58       77.6        316       3983       1605      -1.15       0.00       0.00      0.000
7:49pm            186          3          4         46         58       71.6       77.6      29.58       77.6        316       3983       1605      -1.13       0.00       0.00      0.000
7:50pm            170          0          4         46         58       71.6       77.6      29.58       77.6        316       3983       1605      -1.11       0.00       0.00      0.000
7:51pm            172          2          4         46         58       71.6       77.5      29.58       77.5        316       3981       1599      -1.19       0.00       0.00      0.000
7:52pm            210          5          5         46         58       71.6       77.5      29.58       77.5        316       3981       1599      -1.18       0.00       0.00      0.000
7:53pm            164          1          5         46         58       71.6       77.5      29.58       77.5        316       3981       1599      -1.16       0.00       0.00      0.000
7:54pm            170          3          5         46         58       71.6       77.5      29.58       77.5        316       3981       1599      -1.14       0.00       0.00      0.000
7:55pm            169          2          5         46         58       71.4       77.5      29.58       77.5        316       3981       1599      -1.12       0.00       0.00      0.000
7:56pm            216          0          3         46         58       71.4       77.4      29.58       77.4        317       3980       1594      -1.20       0.00       0.00      0.000
7:57pm            189          2          3         46         58       71.4       77.4      29.58       77.4        317       3980       1594      -1.18       0.00       0.00      0.000
7:58pm            189          0          3         46         58       71.4       77.4      29.58       77.4        317       3980       1594      -1.16       0.00       0.00      0.000
7:59pm            204          2          6         46         58       71.4       77.3      29.58       77.3        317       3978       1587      -1.24       0.00       0.00      0.000
8:00pm            189          2          6         46         58       71.4       77.3      29.58       77.3        317       3978       1587      -1.22       0.00       0.00      0.000
8:01pm            189          1          2         46         59       71.4       77.3      29.58       77.3        317       3857       1587      -1.20       0.00       0.00      0.000
8:02pm            189          1          2         46         59       71.4       77.3      29.58       77.3        316       3857       1586      -1.18       0.00       0.00      0.000
8:03pm            189          0          2         46         59       71.4       77.2      29.58       77.2        316       3856       1580      -1.26       0.00       0.00      0.000
8:04pm            189          3          3         46         59       71.4       77.2      29.58       77.2        316       3856       1580      -1.24       0.00       0.00      0.000
8:05pm            189          0          3         46         59       71.4       77.1      29.58       77.1        316       3854       1574      -1.32       0.00       0.00      0.000
8:06pm            190          1          2         46         59       71.4       77.0      29.58       77.0        316       3852       1567      -1.39       0.00       0.00      0.000
8:07pm            189          0          2         46         59       71.4       77.0      29.58       77.0        316       3852       1567      -1.37       0.00       0.00      0.000
8:08pm            189          1          2         46         60       71.4       76.9      29.58       76.9        317       3732       1562      -1.45       0.00       0.00      0.000
8:09pm            189          2          2         46         60       71.4       76.9      29.58       76.9        317       3732       1562      -1.42       0.00       0.00      0.000
8:10pm            189          1          2         46         60       71.4       76.9      29.58       76.9        317       3732       1562      -1.40       0.00       0.00      0.000
8:11pm            189          0          2         46         60       71.4       76.8      29.58       76.8        317       3730       1556      -1.48       0.00       0.00      0.000
8:12pm            189          0          2         46         60       71.6       76.8      29.58       76.8        318       3730       1557      -1.45       0.00       0.00      0.000
8:13pm            189          0          2         46         61       71.6       76.7      29.58       76.7        318       3612       1551      -1.53       0.00       0.00      0.000
8:14pm            189          2          2         46         61       71.6       76.7      29.58       76.7        318       3612       1551      -1.50       0.00       0.00      0.000
8:15pm            233          1          4         46         61       71.6       76.6      29.58       76.6        318       3610       1545      -1.58       0.00       0.00      0.000
8:16pm            233          0          1         46         61       71.6       76.6      29.58       76.6        320       3610       1547      -1.55       0.00       0.00      0.000
8:17pm            233          1          1         46         61       71.6       76.6      29.57       76.6        321       3610       1548      -1.52       0.00       0.00      0.000
8:18pm            165          1          4         46         61       71.6       76.5      29.57       76.5        322       3609       1543      -1.60       0.00       0.00      0.000
8:19pm            166          0          4         46         61       71.6       76.4      29.57       76.4        323       3607       1538      -1.67       0.00       0.00      0.000
8:20pm            166          0          4         46         61       71.6       76.4      29.57       76.4        324       3607       1539      -1.64       0.00       0.00      0.000
8:21pm            166          0          0         46         61       71.6       76.4      29.57       76.4        324       3607       1539      -1.62       0.00       0.00      0.000
8:22pm            166          2          2         46         61       71.6       76.3      29.57       76.3        324       3606       1532      -1.69       0.00       0.00      0.000
8:23pm            185          1          3         46         62       71.6       76.3      29.57       76.3        322       3491       1530      -1.66       0.00       0.00      0.000
8:24pm            185          0          3         46         62       71.6       76.3      29.57       76.3        321       3491       1529      -1.63       0.00       0.00      0.000
8:25pm            185          2          3         46         62       71.6       76.2      29.58       76.2        319       3489       1520      -1.71       0.00       0.00      0.000
8:26pm            185          0          2         46         62       71.6       76.1      29.58       76.1        318       3488       1513      -1.78       0.00       0.00      0.000
8:27pm            185          1          2         46         62       71.6       76.2      29.58       76.2        318       3489       1519      -1.65       0.00       0.00      0.000
8:28pm            185          0          2         46         62       71.8       76.1      29.58       76.1        318       3488       1513      -1.72       0.00       0.00      0.000
8:29pm            185          0          2         46         62       71.8       76.1      29.58       76.1        318       3488       1513      -1.69       0.00       0.00      0.000
8:30pm            185          0          2         46         62       71.8       76.0      29.58       76.0        318       3486       1507      -1.76       0.00       0.00      0.000
8:31pm            185          0          0         46         63       71.8       76.0      29.58       76.0        318       3373       1507      -1.73       0.00       0.00      0.000
8:32pm            185          1          1         46         63       71.8       75.9      29.58       75.9        318       3372       1500      -1.81       0.00       0.00      0.000
8:33pm            185          0          1         46         63       71.8       75.9      29.58       75.9        317       3372       1499      -1.78       0.00       0.00      0.000
8:34pm            185          0          1         46         63       71.8       75.8      29.58       75.8        317       3370       1493      -1.84       0.00       0.00      0.000
8:35pm            185          0          1         46         63       71.8       75.7      29.58       75.7        317       3369       1487      -1.91       0.00       0.00      0.000
8:36pm            185          0          0         46         63       71.8       75.7      29.58       75.7        316       3369       1486      -1.88       0.00       0.00      0.000
8:37pm            185          0          0         46         63       71.8       75.6      29.58       75.6        317       3367       1480      -1.95       0.00       0.00      0.000
8:38pm            185          0          0         46         63       71.8       75.6      29.58       75.6        317       3367       1480      -1.92       0.00       0.00      0.000
8:39pm            185          0          0         46         63       71.8       75.6      29.58       75.6        317       3367       1480      -1.89       0.00       0.00      0.000
8:40pm            185          0          0         46         63       71.8       75.5      29.58       75.5        317       3366       1474      -1.96       0.00       0.00      0.000
8:41pm            185          0          0         46         64       71.8       75.5      29.58       75.5        317       3254       1474      -1.92       0.00       0.00      0.000
8:42pm            185          0          0         46         64       71.8       75.5      29.58       75.5        317       3254       1474      -1.89       0.00       0.00      0.000
8:43pm            185          0          0         46         64       71.8       75.4      29.58       75.4        317       3253       1468      -1.96       0.00       0.00      0.000
8:44pm            185          0          0         46         64       71.8       75.4      29.58       75.4        317       3253       1468      -1.93       0.00       0.00      0.000
8:45pm            185          0          0         46         64       71.9       75.4      29.58       75.4        317       3253       1468      -1.90       0.00       0.00      0.000
8:46pm            185          0          0         46         64       71.9       75.3      29.58       75.3        317       3252       1461      -1.96       0.00       0.00      0.000
8:47pm            185          0          0         46         65       71.9       75.2      29.58       75.2        317       3140       1455      -2.03       0.00       0.00      0.000
8:48pm            185          0          0         46         65       71.9       75.2      29.58       75.2        317       3140       1455      -2.00       0.00       0.00      0.000
8:49pm            185          1          1         46         65       71.9       75.1      29.58       75.1        317       3139       1449      -2.07       0.00       0.00      0.000
8:50pm            185          0          2         46         65       71.9       75.1      29.58       75.1        317       3139       1449      -2.03       0.00       0.00      0.000
8:51pm            185          0          0         46         65       71.9       75.1      29.58       75.1        317       3139       1449      -2.00       0.00       0.00      0.000
8:52pm            185          0          0         46         65       71.9       75.1      29.58       75.1        317       3139       1449      -1.96       0.00       0.00      0.000
8:53pm            185          0          0         46         65       71.9       74.9      29.58       74.9        317       3136       1436      -2.13       0.00       0.00      0.000
8:54pm            185          0          0         46         66       71.9       74.9      29.58       74.9        317       3028       1436      -2.10       0.00       0.00      0.000
8:55pm            185          0          0         46         66       71.9       74.9      29.58       74.9        317       3028       1436      -2.06       0.00       0.00      0.000
8:56pm            185          0          1         46         66       71.9       74.8      29.58       74.8        316       3027       1429      -2.13       0.00       0.00      0.000
8:57pm            185          0          1         46         66       71.8       74.8      29.58       74.8        316       3027       1429      -2.09       0.00       0.00      0.000
8:58pm            185          0          1         46         66       71.8       74.7      29.58       74.7        316       3026       1422      -2.16       0.00       0.00      0.000
8:59pm            185          0          1         46         66       71.8       74.7      29.58       74.7        316       3026       1422      -2.12       0.00       0.00      0.000
9:00pm            185          0          1         46         66       71.8       74.6      29.58       74.6        316       3024       1416      -2.18       0.00       0.00      0.000
9:01pm            185          0          0         46         66       71.8       74.6      29.58       74.6        316       3024       1415      -2.15       0.00       0.00      0.000
9:02pm            185          0          0         46         67       71.8       74.5      29.58       74.5        316       2916       1408      -2.21       0.00       0.00      0.000
9:03pm            185          0          0         46         67       71.8       74.4      29.58       74.4        316       2915       1402      -2.27       0.00       0.00      0.000
9:04pm            185          0          0         46         67       71.8       74.4      29.58       74.4        316       2915       1402      -2.24       0.00       0.00      0.000
9:05pm            185          0          0         46         67       71.8       74.4      29.58       74.4        316       2915       1402      -2.20       0.00       0.00      0.000
9:06pm            185          0          0         46         67       71.8       74.3      29.58       74.3        316       2914       1396      -2.26       0.00       0.00      0.000
9:07pm            185          0          0         46         67       71.8       74.2      29.58       74.2        316       2913       1391      -2.32       0.00       0.00      0.000
9:08pm            185          0          0         46         67       71.8       74.1      29.58       74.1        316       2912       1384      -2.39       0.00       0.00      0.000
9:09pm            185          0          0         46         67       71.8       74.1      29.58       74.1        316       2912       1384      -2.34       0.00       0.00      0.000
9:10pm            185          0          1         46         68       71.8       74.0      29.58       74.0        316       2805       1377      -2.41       0.00       0.00      0.000
9:11pm            185          0          0         46         68       71.8       74.0      29.58       74.0        316       2805       1377      -2.37       0.00       0.00      0.000
9:12pm            185          0          0         46         68       71.8       74.0      29.58       74.0        316       2805       1377      -2.33       0.00       0.00      0.000
9:13pm            185          0          0         46         68       71.8       73.9      29.58       73.9        316       2804       1370      -2.39       0.00       0.00      0.000
9:14pm            185          0          0         46         68       71.8       73.8      29.58       73.8        316       2803       1364      -2.45       0.00       0.00      0.000
9:15pm            185          0          0         46         68       71.8       73.8      29.58       73.8        316       2803       1364      -2.41       0.00       0.00      0.000
9:16pm            185          0          0         46         68       71.8       73.7      29.58       73.7        316       2802       1358      -2.47       0.00       0.00      0.000
9:17pm            185          0          0         46         68       71.8       73.7      29.58       73.7        315       2802       1357      -2.43       0.00       0.00      0.000
9:18pm            185          0          0         46         68       71.8       73.7      29.58       73.7        315       2802       1357      -2.39       0.00       0.00      0.000
9:19pm            185          0          0         46         68       71.8       73.6      29.58       73.6        314       2800       1349      -2.45       0.00       0.00      0.000
9:20pm            185          0          0         46         68       71.8       73.6      29.58       73.6        314       2800       1349      -2.41       0.00       0.00      0.000
9:21pm            185          0          0         46         69       71.9       73.5      29.58       73.5        314       2696       1343      -2.47       0.00       0.00      0.000
9:22pm            185          0          0         46         69       71.9       73.4      29.58       73.4        314       2695       1336      -2.52       0.00       0.00      0.000
9:23pm            185          0          0         46         69       71.9       73.4      29.58       73.4        314       2695       1336      -2.49       0.00       0.00      0.000
9:24pm            185          0          0         46         68       71.9       73.4      29.58       73.4        314       2798       1336      -2.44       0.00       0.00      0.000
9:25pm            104          2          2         46         68       71.9       73.3      29.58       73.3        314       2797       1330      -2.50       0.00       0.00      0.000
9:26pm            104          0          2         46         69       71.9       73.3      29.58       73.3        313       2693       1329      -2.46       0.00       0.00      0.000
9:27pm            104          0          2         46         69       71.9       73.2      29.58       73.2        313       2692       1323      -2.52       0.00       0.00      0.000
9:28pm            104          2          2         46         69       71.9       73.2      29.59       73.2        311       2692       1320      -2.48       0.00       0.00      0.000
9:29pm            104          1          2         46         68       71.9       73.2      29.59       73.2        310       2796       1319      -2.44       0.00       0.00      0.000
9:30pm            104          0          2         46         69       71.9       73.1      29.59       73.1        309       2691       1312      -2.49       0.00       0.00      0.000
9:31pm            104          0          0         46         69       71.9       73.1      29.59       73.1        307       2691       1310      -2.45       0.00       0.00      0.000
9:32pm            104          0          0         46         69       71.9       73.1      29.59       73.1        307       2691       1310      -2.41       0.00       0.00      0.000
9:33pm            104          0          0         46         69       71.9       73.1      29.59       73.1        305       2691       1306      -2.37       0.00       0.00      0.000
9:34pm            104          0          0         46         69       71.9       73.1      29.59       73.1        304       2691       1305      -2.33       0.00       0.00      0.000
9:35pm            104          0          0         46         69       71.9       73.0      29.59       73.0        305       2690       1300      -2.39       0.00       0.00      0.000
9:36pm            104          0          0         46         69       71.9       73.0      29.59       73.0        304       2690       1299      -2.36       0.00       0.00      0.000
9:37pm            104          0          0         46         69       71.9       73.0      29.59       73.0        304       2690       1299      -2.32       0.00       0.00      0.000
9:38pm            104          0          0         46         69       71.9       73.0      29.59       73.0        304       2690       1299      -2.28       0.00       0.00      0.000
9:39pm            108          1          2         46         69       71.9       73.0      29.59       73.0        304       2690       1299      -2.24       0.00       0.00      0.000
9:40pm            108          0          2         46         69       71.9       72.9      29.59       72.9        304       2689       1292      -2.30       0.00       0.00      0.000
9:41pm            122          0          2         46         69       71.9       72.9      29.59       72.9        305       2689       1293      -2.26       0.00       0.00      0.000
9:42pm            122          0          2         46         70       72.1       72.9      29.59       72.9        305       2587       1293      -2.23       0.00       0.00      0.000
9:43pm            122          0          2         46         69       72.1       72.8      29.59       72.8        304       2688       1286      -2.29       0.00       0.00      0.000
9:44pm            122          0          2         46         70       72.1       72.8      29.59       72.8        303       2586       1285      -2.25       0.00       0.00      0.000
9:45pm            122          0          2         46         70       72.1       72.8      29.59       72.8        303       2586       1285      -2.21       0.00       0.00      0.000
9:46pm            139          2          3         46         70       72.1       72.7      29.59       72.7        303       2585       1279      -2.28       0.00       0.00      0.000
9:47pm            139          0          3         46         70       72.1       72.7      29.60       72.7        301       2585       1276      -2.24       0.00       0.00      0.000
9:48pm            139          0          3         46         70       72.1       72.7      29.60       72.7        301       2585       1276      -2.20       0.00       0.00      0.000
9:49pm            139          0          3         46         70       71.9       72.6      29.60       72.6        301       2584       1270      -2.27       0.00       0.00      0.000
9:50pm            139          0          3         46         70       71.9       72.6      29.60       72.6        301       2584       1270      -2.23       0.00       0.00      0.000
9:51pm            139          0          0         46         70       71.9       72.6      29.60       72.6        301       2584       1270      -2.19       0.00       0.00      0.000
9:52pm            139          0          1         46         70       71.9       72.6      29.60       72.6        301       2584       1270      -2.16       0.00       0.00      0.000
9:53pm            139          0          1         46         70       71.9       72.6      29.60       72.6        301       2584       1270      -2.12       0.00       0.00      0.000
9:54pm            139          0          2         46         71       71.9       72.6      29.60       72.6        300       2483       1269      -2.09       0.00       0.00      0.000
9:55pm            131          1          2         46         71       71.9       72.5      29.60       72.5        300       2482       1262      -2.15       0.00       0.00      0.000
9:56pm            131          1          1         46         71       71.9       72.5      29.60       72.5        300       2482       1262      -2.11       0.00       0.00      0.000
9:57pm            131          0          1         46         71       71.9       72.5      29.60       72.5        300       2482       1262      -2.08       0.00       0.00      0.000
9:58pm            131          0          1         46         71       71.9       72.4      29.60       72.4        300       2481       1256      -2.14       0.00       0.00      0.000
9:59pm            191          2          2         46         71       71.9       72.4      29.60       72.4        300       2481       1256      -2.11       0.00       0.00      0.000
10:00pm           186          0          3         46         71       71.8       72.4      29.60       72.4        301       2481       1257      -2.07       0.00       0.00      0.000
10:01pm           186          1          2         46         71       71.8       72.3      29.60       72.3        301       2480       1251      -2.14       0.00       0.00      0.000
10:02pm           186          1          2         46         71       71.8       72.3      29.60       72.3        301       2480       1251      -2.10       0.00       0.00      0.000
10:03pm           186          0          2         46         72       71.8       72.3      29.60       72.3        301       2381       1251      -2.07       0.00       0.00      0.000
10:04pm           186          0          2         46         72       71.8       72.3      29.60       72.3        300       2381       1250      -2.04       0.00       0.00      0.000
10:05pm           186          0          2         46         72       71.8       72.3      29.60       72.3        301       2381       1251      -2.00       0.00       0.00      0.000
10:06pm           186          0          1         46         72       71.8       72.2      29.60       72.2        301       2380       1244      -2.07       0.00       0.00      0.000
10:07pm           186          0          1         46         72       71.8       72.2      29.60       72.2        301       2380       1244      -2.03       0.00       0.00      0.000
10:08pm           186          0          1         46         72       71.8       72.2      29.60       72.2        301       2380       1244      -2.00       0.00       0.00      0.000
10:09pm           186          0          1         46         72       71.6       72.1      29.60       72.1        301       2379       1238      -2.07       0.00       0.00      0.000
10:10pm           186          0          1         46         72       71.6       72.1      29.60       72.1        301       2379       1238      -2.03       0.00       0.00      0.000
10:11pm           186          1          2         46         72       71.6       72.0      29.60       72.0        301       2378       1232      -2.10       0.00       0.00      0.000
10:12pm           186          0          2         46         72       71.6       72.1      29.60       72.1        301       2379       1238      -1.96       0.00       0.00      0.000
10:13pm           186          0          2         46         72       71.6       72.0      29.60       72.0        301       2378       1232      -2.03       0.00       0.00      0.000
10:14pm           186          0          2         46         72       71.6       72.0      29.60       72.0        301       2378       1232      -2.00       0.00       0.00      0.000
10:15pm           186          1          2         46         72       71.6       71.9      29.60       71.9        301       2377       1225      -2.06       0.00       0.00      0.000
10:16pm           186          0          1         46         72       71.8       71.9      29.60       71.9        301       2377       1225      -2.03       0.00       0.00      0.000
10:17pm           186          0          1         48         73       71.8       71.9      29.60       71.9        301       2279       1225      -1.99       0.00       0.00      0.000
10:18pm           186          0          1         46         73       71.8       71.8      29.60       71.8        300       2278       1218      -2.06       0.00       0.00      0.000
10:19pm           186          0          1         46         73       71.8       71.7      29.60       71.7        300       2277       1211      -2.13       0.00       0.00      0.000
10:20pm           186          1          2         46         73       71.8       71.7      29.60       71.7        300       2277       1211      -2.09       0.00       0.00      0.000
10:21pm           186          2          2         46         73       71.8       71.7      29.60       71.7        300       2277       1211      -2.06       0.00       0.00      0.000
10:22pm           186          1          2         46         73       71.8       71.7      29.60       71.7        300       2277       1211      -2.02       0.00       0.00      0.000
10:23pm           186          0          2         46         73       71.8       71.7      29.60       71.7        300       2277       1211      -1.99       0.00       0.00      0.000
10:24pm           186          0          2         46         73       71.8       71.7      29.60       71.7        300       2277       1211      -1.96       0.00       0.00      0.000
10:25pm           186          0          2         46         73       71.8       71.7      29.60       71.7        300       2277       1211      -1.92       0.00       0.00      0.000
10:26pm           186          0          1         46         73       71.8       71.6      29.60       71.6        300       2276       1205      -1.99       0.00       0.00      0.000
10:27pm           186          0          1         46         73       71.8       71.6      29.60       71.6        300       2276       1205      -1.96       0.00       0.00      0.000
10:28pm           186          2          2         46         73       71.8       71.5      29.60       71.5        300       2275       1199      -2.02       0.00       0.00      0.000
10:29pm           186          1          3         46         73       71.8       71.5      29.60       71.5        299       2275       1198      -1.99       0.00       0.00      0.000
10:30pm           186          1          3         46         73       71.8       71.6      29.60       71.6        299       2276       1204      -1.86       0.00       0.00      0.000
10:31pm           186          1          2         46         73       71.8       71.5      29.60       71.5        299       2275       1198      -1.93       0.00       0.00      0.000
10:32pm           186          1          2         46         73       71.8       71.6      29.60       71.6        299       2276       1204      -1.80       0.00       0.00      0.000
10:33pm           186          0          2         46         74       71.8       71.6      29.60       71.6        299       2179       1204      -1.76       0.00       0.00      0.000
10:34pm           186          1          2         46         74       71.8       71.5      29.60       71.5        299       2178       1198      -1.83       0.00       0.00      0.000
10:35pm           186          0          2         46         74       71.8       71.5      29.60       71.5        299       2178       1198      -1.80       0.00       0.00      0.000
10:36pm           186          0          1         46         74       71.8       71.5      29.60       71.5        298       2178       1196      -1.77       0.00       0.00      0.000
10:37pm           186          0          1         46         74       71.8       71.5      29.60       71.5        298       2178       1196      -1.75       0.00       0.00      0.000
10:38pm           186          0          1         46         74       71.8       71.5      29.60       71.5        298       2178       1196      -1.72       0.00       0.00      0.000
10:39pm           188          0          3         46         74       71.8       71.5      29.60       71.5        298       2178       1196      -1.69       0.00       0.00      0.000
10:40pm           188          1          3         46         73       71.6       71.5      29.60       71.5        297       2275       1195      -1.66       0.00       0.00      0.000
10:41pm           188          0          1         46         74       71.6       71.4      29.60       71.4        298       2177       1190      -1.73       0.00       0.00      0.000
10:42pm           188          0          1         46         74       71.6       71.4      29.60       71.4        298       2177       1190      -1.70       0.00       0.00      0.000
10:43pm           188          0          1         46         74       71.6       71.3      29.60       71.3        298       2177       1184      -1.77       0.00       0.00      0.000
10:44pm           188          0          1         46         74       71.6       71.3      29.60       71.3        298       2177       1184      -1.74       0.00       0.00      0.000
10:45pm           188          0          1         46         74       71.6       71.3      29.60       71.3        298       2177       1184      -1.71       0.00       0.00      0.000
10:46pm           188          0          0         46         74       71.6       71.3      29.60       71.3        298       2177       1184      -1.69       0.00       0.00      0.000
10:47pm           188          0          0         46         74       71.6       71.2      29.60       71.2        298       2176       1177      -1.76       0.00       0.00      0.000
10:48pm           188          0          0         46         74       71.4       71.2      29.60       71.2        297       2176       1176      -1.73       0.00       0.00      0.000
10:49pm           188          0          0         46         74       71.4       71.2      29.60       71.2        297       2176       1176      -1.70       0.00       0.00      0.000
10:50pm           188          0          0         46         74       71.4       71.2      29.60       71.2        296       2176       1175      -1.67       0.00       0.00      0.000
10:51pm           188          0          0         46         74       71.4       71.0      29.60       71.0        296       2174       1162      -1.84       0.00       0.00      0.000
10:52pm           188          1          1         46         74       71.4       71.1      29.60       71.1        295       2175       1168      -1.71       0.00       0.00      0.000
10:53pm           188          0          2         46         74       71.4       71.0      29.60       71.0        295       2174       1161      -1.79       0.00       0.00      0.000
10:54pm           188          0          2         46         74       71.2       71.0      29.60       71.0        294       2174       1160      -1.75       0.00       0.00      0.000
10:55pm           188          0          2         46         75       71.2       70.9      29.60       70.9        294       2078       1153      -1.83       0.00       0.00      0.000
10:56pm           188          0          0         46         75       71.2       70.9      29.60       70.9        293       2078       1151      -1.80       0.00       0.00      0.000
10:57pm           188          0          0         46         75       71.2       70.9      29.60       70.9        293       2078       1151      -1.77       0.00       0.00      0.000
10:58pm           188          2          2         46         75       71.2       70.8      29.61       70.8        291       2077       1143      -1.84       0.00       0.00      0.000
10:59pm           188          0          3         46         75       71.2       70.8      29.61       70.8        291       2077       1143      -1.81       0.00       0.00      0.000
11:00pm           188          0          3         46         75       71.2       70.8      29.61       70.8        291       2077       1143      -1.78       0.00       0.00      0.000
11:01pm           188          1          1         46         75       71.2       70.8      29.61       70.8        291       2077       1143      -1.75       0.00       0.00      0.000
11:02pm           188          0          1         46         75       71.1       70.8      29.61       70.8        291       2077       1143      -1.72       0.00       0.00      0.000
11:03pm           188          0          1         46         75       71.1       70.7      29.61       70.7        291       2076       1136      -1.79       0.00       0.00      0.000
11:04pm           188          0          1         46         75       71.1       70.7      29.61       70.7        291       2076       1136      -1.76       0.00       0.00      0.000
11:05pm           188          1          1         46         75       71.1       70.7      29.61       70.7        290       2076       1135      -1.73       0.00       0.00      0.000
11:06pm           188          0          1         46         75       71.1       70.6      29.61       70.6        290       2075       1129      -1.80       0.00       0.00      0.000
11:07pm           188          0          1         46         75       71.1       70.6      29.61       70.6        289       2075       1128      -1.77       0.00       0.00      0.000
11:08pm           188          0          1         46         75       71.1       70.6      29.61       70.6        289       2075       1128      -1.74       0.00       0.00      0.000
11:09pm           188          0          1         46         75       71.1       70.5      29.61       70.5        289       2074       1121      -1.81       0.00       0.00      0.000
11:10pm           188          0          1         46         75       70.9       70.5      29.61       70.5        289       2074       1121      -1.78       0.00       0.00      0.000
11:11pm           188          0          0         46         75       70.9       70.5      29.61       70.5        289       2074       1121      -1.75       0.00       0.00      0.000
11:12pm           188          0          0         46         75       71.1       70.5      29.61       70.5        290       2074       1122      -1.72       0.00       0.00      0.000
11:13pm           188          0          0         46         76       71.1       70.4      29.61       70.4        290       1979       1116      -1.79       0.00       0.00      0.000
11:14pm           188          0          0         46         76       71.1       70.4      29.61       70.4        290       1979       1116      -1.76       0.00       0.00      0.000
11:15pm           188          0          0         46         76       71.1       70.3      29.61       70.3        289       1979       1109      -1.83       0.00       0.00      0.000
11:16pm           188          0          0         46         76       71.1       70.4      29.61       70.4        288       1979       1114      -1.70       0.00       0.00      0.000
11:17pm           188          0          0         46         76       71.1       70.3      29.61       70.3        288       1979       1107      -1.78       0.00       0.00      0.000
11:18pm           188          0          0         46         76       71.1       70.2      29.61       70.2        288       1978       1101      -1.85       0.00       0.00      0.000
11:19pm           188          0          0         46         76       71.1       70.2      29.61       70.2        288       1978       1101      -1.81       0.00       0.00      0.000
11:20pm           188          0          0         46         76       71.1       70.2      29.61       70.2        288       1978       1101      -1.79       0.00       0.00      0.000
11:21pm           188          0          0         46         76       71.1       70.2      29.61       70.2        288       1978       1101      -1.76       0.00       0.00      0.000
11:22pm           188          0          0         46         76       71.1       70.1      29.61       70.1        287       1977       1094      -1.82       0.00       0.00      0.000
11:23pm           188          0          0         46         76       71.1       70.1      29.61       70.1        287       1977       1094      -1.79       0.00       0.00      0.000
11:24pm           188          1          1         46         77       71.1       70.0      29.61       70.0        287       1883       1087      -1.87       0.00       0.00      0.000
11:25pm           188          0          1         46         77       71.1       70.0      29.61       70.0        287       1883       1087      -1.84       0.00       0.00      0.000
11:26pm           188          0          0         46         77       71.1       70.0      29.61       70.0        286       1883       1086      -1.80       0.00       0.00      0.000
11:27pm           188          0          0         46         77       71.1       69.9      29.61       69.9        286       1883       1080      -1.87       0.00       0.00      0.000
11:28pm           188          0          1         46         77       71.1       69.9      29.61       69.9        286       1883       1080      -1.84       0.00       0.00      0.000
11:29pm           188          1          1         46         77       71.1       69.9      29.61       69.9        286       1883       1080      -1.81       0.00       0.00      0.000
11:30pm           188          0          1         46         77       71.1       69.8      29.61       69.8        286       1882       1073      -1.88       0.00       0.00      0.000
11:31pm           188          0          0         46         77       71.1       69.8      29.61       69.8        286       1882       1073      -1.85       0.00       0.00      0.000
11:32pm           188          0          0         46         77       71.1       69.8      29.61       69.8        286       1882       1073      -1.82       0.00       0.00      0.000
11:33pm           188          0          0         46         78       71.1       69.8      29.61       69.8        285       1790       1072      -1.79       0.00       0.00      0.000
11:34pm           188          0          1         46         78       71.1       69.8      29.61       69.8        285       1790       1072      -1.76       0.00       0.00      0.000
11:35pm           188          0          1         46         78       71.1       69.8      29.61       69.8        285       1790       1072      -1.73       0.00       0.00      0.000
11:36pm           188          0          0         46         78       71.1       69.7      29.61       69.7        284       1790       1065      -1.80       0.00       0.00      0.000
11:37pm           188          0          1         46         78       71.1       69.7      29.61       69.7        284       1790       1065      -1.77       0.00       0.00      0.000
11:38pm           188          0          1         46         78       70.9       69.7      29.61       69.7        284       1790       1065      -1.74       0.00       0.00      0.000
11:39pm           162          2          3         46         78       70.9       69.7      29.61       69.7        284       1790       1065      -1.71       0.00       0.00      0.000
11:40pm           162          0          3         45         78       70.9       69.7      29.61       69.7        284       1790       1065      -1.68       0.00       0.00      0.000
11:41pm           162          0          0         45         78       70.9       69.7      29.61       69.7        283       1790       1063      -1.66       0.00       0.00      0.000
11:42pm           162          0          0         46         78       70.9       69.7      29.61       69.7        283       1790       1063      -1.63       0.00       0.00      0.000
11:43pm           162          0          0         46         78       70.9       69.7      29.62       69.7        281       1790       1060      -1.60       0.00       0.00      0.000
11:44pm           162          0          1         46         78       70.9       69.7      29.62       69.7        281       1790       1060      -1.58       0.00       0.00      0.000
11:45pm           162          1          1         46         78       70.9       69.7      29.62       69.7        282       1790       1061      -1.55       0.00       0.00      0.000
11:46pm           162          0          1         46         78       70.9       69.7      29.62       69.7        282       1790       1061      -1.52       0.00       0.00      0.000
11:47pm           162          0          1         46         78       70.9       69.7      29.62       69.7        282       1790       1061      -1.50       0.00       0.00      0.000
11:48pm           162          0          3         45         78       70.9       69.7      29.61       69.7        283       1790       1063      -1.47       0.00       0.00      0.000
11:49pm           162          1          3         46         78       70.9       69.7      29.61       69.7        283       1790       1063      -1.45       0.00       0.00      0.000
11:50pm           162          0          3         46         78       70.9       69.7      29.61       69.7        283       1790       1063      -1.42       0.00       0.00      0.000
11:51pm           162          1          1         46         78       70.9       69.6      29.62       69.6        283       1789       1056      -1.50       0.00       0.00      0.000
11:52pm           162          0          1         46         79       70.9       69.6      29.62       69.6        282       1698       1055      -1.48       0.00       0.00      0.000
11:53pm           162          0          1         46         79       70.9       69.5      29.62       69.5        281       1698       1047      -1.55       0.00       0.00      0.000
11:54pm           162          0          1         46         79       70.9       69.5      29.62       69.5        281       1698       1047      -1.53       0.00       0.00      0.000
11:55pm           162          0          2         46         79       70.9       69.5      29.62       69.5        280       1698       1046      -1.50       0.00       0.00      0.000
11:56pm           162          2          2         45         79       70.9       69.5      29.62       69.5        280       1698       1046      -1.48       0.00       0.00      0.000
11:57pm           162          0          2         46         79       70.9       69.4      29.62       69.4        281       1697       1041      -1.55       0.00       0.00      0.000
11:58pm           162          0          2         46         79       70.9       69.4      29.62       69.4        281       1697       1041      -1.53       0.00       0.00      0.000
11:59pm           162          0          2         46         79       70.9       69.4      29.62       69.4        283       1697       1043      -1.50       0.00       0.00      0.000

Data provided from:  Mark Hofmann's Bel Air, MD Weather Station